Wetterdaten: Dienstag, 06.06.2017
Datum Zeit Temp. Aussen Temp. o. S. +5cm Feuchte Auss BlattFeu 1 Luftdruck Regen Sonnenschein Regendauer Solar Windben Empfang
06.06.2017 00:00 16,7 C 16,1 C 13,9 C 67 % 0 lf 1005,5 hPa 0,0 l/m 0 min 0 min 0 W/m 6,3 km/h (2 Bft) 99,12 %
06.06.2017 00:05 16,6 C 16,1 C 13,9 C 67 % 0 lf 1005,5 hPa 0,0 l/m 0 min 0 min 0 W/m 6,3 km/h (2 Bft) 97,37 %
06.06.2017 00:10 16,6 C 16,1 C 13,9 C 67 % 0 lf 1005,4 hPa 0,0 l/m 0 min 0 min 0 W/m 8,4 km/h (2 Bft) 100,00 %
06.06.2017 00:15 16,5 C 16,1 C 13,9 C 68 % 0 lf 1005,2 hPa 0,0 l/m 0 min 0 min 0 W/m 6,3 km/h (2 Bft) 100,00 %
06.06.2017 00:20 16,5 C 16,1 C 13,9 C 68 % 0 lf 1005,2 hPa 0,0 l/m 0 min 0 min 0 W/m 8,4 km/h (2 Bft) 100,00 %
06.06.2017 00:25 16,4 C 15,6 C 13,9 C 68 % 0 lf 1005,1 hPa 0,0 l/m 0 min 0 min 0 W/m 8,4 km/h (2 Bft) 100,00 %
06.06.2017 00:30 16,4 C 16,1 C 13,9 C 68 % 0 lf 1005,1 hPa 0,0 l/m 0 min 0 min 0 W/m 6,3 km/h (2 Bft) 98,25 %
06.06.2017 00:35 16,3 C 15,6 C 13,9 C 69 % 0 lf 1005,0 hPa 0,0 l/m 0 min 0 min 0 W/m 4,2 km/h (1 Bft) 100,00 %
06.06.2017 00:40 16,3 C 15,6 C 13,3 C 69 % 0 lf 1004,9 hPa 0,0 l/m 0 min 0 min 0 W/m 6,3 km/h (2 Bft) 100,00 %
06.06.2017 00:45 16,2 C 15,6 C 13,3 C 69 % 0 lf 1004,9 hPa 0,0 l/m 0 min 0 min 0 W/m 6,3 km/h (2 Bft) 100,00 %
06.06.2017 00:50 16,2 C 15,6 C 12,8 C 69 % 0 lf 1004,8 hPa 0,0 l/m 0 min 0 min 0 W/m 6,3 km/h (2 Bft) 96,49 %
06.06.2017 00:55 16,1 C 15,6 C 12,8 C 69 % 0 lf 1004,7 hPa 0,0 l/m 0 min 0 min 0 W/m 6,3 km/h (2 Bft) 93,86 %
06.06.2017 01:00 16,1 C 15,6 C 12,8 C 69 % 0 lf 1004,7 hPa 0,0 l/m 0 min 0 min 0 W/m 4,2 km/h (1 Bft) 95,61 %
06.06.2017 01:05 16,0 C 15,6 C 12,8 C 69 % 0 lf 1004,6 hPa 0,0 l/m 0 min 0 min 0 W/m 6,3 km/h (2 Bft) 93,86 %
06.06.2017 01:10 15,9 C 15,0 C 12,8 C 70 % 0 lf 1004,5 hPa 0,0 l/m 0 min 0 min 0 W/m 8,4 km/h (2 Bft) 92,98 %
06.06.2017 01:15 15,8 C 15,0 C 12,8 C 70 % 0 lf 1004,4 hPa 0,0 l/m 0 min 0 min 0 W/m 10,5 km/h (2 Bft) 94,74 %
06.06.2017 01:20 15,7 C 15,0 C 12,8 C 70 % 0 lf 1004,4 hPa 0,0 l/m 0 min 0 min 0 W/m 8,4 km/h (2 Bft) 93,86 %
06.06.2017 01:25 15,7 C 14,4 C 12,8 C 71 % 0 lf 1004,4 hPa 0,0 l/m 0 min 0 min 0 W/m 18,8 km/h (3 Bft) 93,86 %
06.06.2017 01:30 15,6 C 15,0 C 13,3 C 71 % 0 lf 1004,2 hPa 0,0 l/m 0 min 0 min 0 W/m 12,6 km/h (3 Bft) 93,86 %
06.06.2017 01:35 15,4 C 15,0 C 13,3 C 72 % 0 lf 1004,2 hPa 0,0 l/m 0 min 0 min 0 W/m 10,5 km/h (2 Bft) 91,23 %
06.06.2017 01:40 15,4 C 15,0 C 13,3 C 72 % 0 lf 1004,1 hPa 0,0 l/m 0 min 0 min 0 W/m 10,5 km/h (2 Bft) 95,61 %
06.06.2017 01:45 15,3 C 15,6 C 13,9 C 72 % 0 lf 1004,0 hPa 0,0 l/m 0 min 0 min 0 W/m 12,6 km/h (3 Bft) 98,25 %
06.06.2017 01:50 15,3 C 15,0 C 13,9 C 72 % 0 lf 1003,9 hPa 0,0 l/m 0 min 0 min 0 W/m 14,6 km/h (3 Bft) 97,37 %
06.06.2017 01:55 15,3 C 15,0 C 13,9 C 72 % 0 lf 1003,9 hPa 0,0 l/m 0 min 0 min 0 W/m 14,6 km/h (3 Bft) 96,49 %
06.06.2017 02:00 15,3 C 15,0 C 13,9 C 73 % 0 lf 1003,8 hPa 0,0 l/m 0 min 0 min 0 W/m 14,6 km/h (3 Bft) 100,00 %
06.06.2017 02:05 15,3 C 15,0 C 13,9 C 73 % 0 lf 1003,7 hPa 0,0 l/m 0 min 0 min 0 W/m 14,6 km/h (3 Bft) 100,00 %
06.06.2017 02:10 15,3 C 15,0 C 13,9 C 73 % 0 lf 1003,7 hPa 0,0 l/m 0 min 0 min 0 W/m 16,7 km/h (3 Bft) 100,00 %
06.06.2017 02:15 15,3 C 15,6 C 13,9 C 73 % 0 lf 1003,6 hPa 0,0 l/m 0 min 0 min 0 W/m 16,7 km/h (3 Bft) 100,00 %
06.06.2017 02:20 15,3 C 15,0 C 13,9 C 73 % 0 lf 1003,5 hPa 0,0 l/m 0 min 0 min 0 W/m 14,6 km/h (3 Bft) 100,00 %
06.06.2017 02:25 15,2 C 15,6 C 13,9 C 73 % 0 lf 1003,4 hPa 0,0 l/m 0 min 0 min 0 W/m 14,6 km/h (3 Bft) 98,25 %
06.06.2017 02:30 15,2 C 15,0 C 13,9 C 73 % 0 lf 1003,2 hPa 0,0 l/m 0 min 0 min 0 W/m 12,6 km/h (3 Bft) 100,00 %
06.06.2017 02:35 15,2 C 15,0 C 13,9 C 73 % 0 lf 1003,1 hPa 0,0 l/m 0 min 0 min 0 W/m 16,7 km/h (3 Bft) 100,00 %
06.06.2017 02:40 15,2 C 15,0 C 13,9 C 73 % 0 lf 1003,0 hPa 0,0 l/m 0 min 0 min 0 W/m 14,6 km/h (3 Bft) 100,00 %
06.06.2017 02:45 15,2 C 15,0 C 13,9 C 73 % 0 lf 1002,9 hPa 0,0 l/m 0 min 0 min 0 W/m 12,6 km/h (3 Bft) 100,00 %
06.06.2017 02:50 15,2 C 15,0 C 13,9 C 73 % 0 lf 1002,8 hPa 0,0 l/m 0 min 0 min 0 W/m 14,6 km/h (3 Bft) 100,00 %
06.06.2017 02:55 15,2 C 15,0 C 13,9 C 73 % 0 lf 1002,7 hPa 0,0 l/m 0 min 0 min 0 W/m 14,6 km/h (3 Bft) 100,00 %
06.06.2017 03:00 15,2 C 15,0 C 13,9 C 73 % 0 lf 1002,7 hPa 0,0 l/m 0 min 0 min 0 W/m 16,7 km/h (3 Bft) 100,00 %
06.06.2017 03:05 15,1 C 15,0 C 13,9 C 74 % 0 lf 1002,5 hPa 0,0 l/m 0 min 0 min 0 W/m 14,6 km/h (3 Bft) 100,00 %
06.06.2017 03:10 15,1 C 15,0 C 13,9 C 74 % 0 lf 1002,5 hPa 0,0 l/m 0 min 0 min 0 W/m 12,6 km/h (3 Bft) 100,00 %
06.06.2017 03:15 15,1 C 15,0 C 13,9 C 74 % 0 lf 1002,4 hPa 0,0 l/m 0 min 0 min 0 W/m 14,6 km/h (3 Bft) 100,00 %
06.06.2017 03:20 15,1 C 15,0 C 13,9 C 74 % 0 lf 1002,3 hPa 0,0 l/m 0 min 0 min 0 W/m 14,6 km/h (3 Bft) 100,00 %
06.06.2017 03:25 15,1 C 15,0 C 13,9 C 74 % 0 lf 1002,1 hPa 0,0 l/m 0 min 0 min 0 W/m 10,5 km/h (2 Bft) 99,12 %
06.06.2017 03:30 15,1 C 15,0 C 13,9 C 74 % 0 lf 1002,0 hPa 0,0 l/m 0 min 0 min 0 W/m 14,6 km/h (3 Bft) 100,00 %
06.06.2017 03:35 15,1 C 15,0 C 13,3 C 74 % 0 lf 1002,0 hPa 0,0 l/m 0 min 0 min 0 W/m 12,6 km/h (3 Bft) 96,49 %
06.06.2017 03:40 15,1 C 15,0 C 13,3 C 73 % 0 lf 1001,8 hPa 0,0 l/m 0 min 0 min 0 W/m 16,7 km/h (3 Bft) 100,00 %
06.06.2017 03:45 15,1 C 15,0 C 13,9 C 73 % 0 lf 1001,8 hPa 0,0 l/m 0 min 0 min 0 W/m 14,6 km/h (3 Bft) 93,86 %
06.06.2017 03:50 15,1 C 15,0 C 13,9 C 73 % 0 lf 1001,7 hPa 0,0 l/m 0 min 0 min 0 W/m 16,7 km/h (3 Bft) 96,49 %
06.06.2017 03:55 15,1 C 15,0 C 13,9 C 73 % 0 lf 1001,6 hPa 0,0 l/m 0 min 0 min 0 W/m 16,7 km/h (3 Bft) 95,61 %
06.06.2017 04:00 15,1 C 15,0 C 13,9 C 73 % 0 lf 1001,6 hPa 0,0 l/m 0 min 0 min 0 W/m 14,6 km/h (3 Bft) 94,74 %
06.06.2017 04:05 15,1 C 15,0 C 13,9 C 73 % 0 lf 1001,4 hPa 0,0 l/m 0 min 0 min 0 W/m 16,7 km/h (3 Bft) 83,33 %
06.06.2017 04:10 15,1 C 15,0 C 13,9 C 73 % 0 lf 1001,4 hPa 0,0 l/m 0 min 0 min 0 W/m 20,9 km/h (4 Bft) 94,74 %
06.06.2017 04:15 15,2 C 15,6 C 13,9 C 73 % 0 lf 1001,2 hPa 0,0 l/m 0 min 0 min 0 W/m 20,9 km/h (4 Bft) 96,49 %
06.06.2017 04:20 15,2 C 15,6 C 13,9 C 73 % 0 lf 1001,1 hPa 0,0 l/m 0 min 0 min 0 W/m 18,8 km/h (3 Bft) 96,49 %
06.06.2017 04:25 15,2 C 15,6 C 13,9 C 73 % 0 lf 1001,0 hPa 0,0 l/m 0 min 0 min 0 W/m 16,7 km/h (3 Bft) 95,61 %
06.06.2017 04:30 15,2 C 15,0 C 13,9 C 73 % 0 lf 1000,8 hPa 0,0 l/m 0 min 0 min 0 W/m 16,7 km/h (3 Bft) 98,25 %
06.06.2017 04:35 15,2 C 15,6 C 13,9 C 73 % 0 lf 1000,7 hPa 0,0 l/m 0 min 0 min 0 W/m 18,8 km/h (3 Bft) 100,00 %
06.06.2017 04:40 15,2 C 15,0 C 13,9 C 73 % 0 lf 1000,6 hPa 0,0 l/m 0 min 0 min 0 W/m 23,0 km/h (4 Bft) 100,00 %
06.06.2017 04:45 15,2 C 15,0 C 13,9 C 73 % 0 lf 1000,6 hPa 0,0 l/m 0 min 0 min 0 W/m 16,7 km/h (3 Bft) 97,37 %
06.06.2017 04:50 15,2 C 15,0 C 13,9 C 73 % 0 lf 1000,4 hPa 0,0 l/m 0 min 0 min 0 W/m 18,8 km/h (3 Bft) 98,25 %
06.06.2017 04:55 15,2 C 15,0 C 13,9 C 73 % 0 lf 1000,3 hPa 0,0 l/m 0 min 0 min 0 W/m 16,7 km/h (3 Bft) 99,12 %
06.06.2017 05:00 15,2 C 15,0 C 13,9 C 73 % 0 lf 1000,2 hPa 0,0 l/m 0 min 0 min 0 W/m 16,7 km/h (3 Bft) 98,25 %
06.06.2017 05:05 15,2 C 15,6 C 13,9 C 73 % 0 lf 1000,2 hPa 0,0 l/m 0 min 0 min 0 W/m 14,6 km/h (3 Bft) 92,98 %
06.06.2017 05:10 15,2 C 15,6 C 13,9 C 73 % 0 lf 1000,1 hPa 0,0 l/m 0 min 0 min 1 W/m 18,8 km/h (3 Bft) 98,25 %
06.06.2017 05:15 15,3 C 15,6 C 13,9 C 73 % 0 lf 1000,0 hPa 0,0 l/m 0 min 0 min 5 W/m 23,0 km/h (4 Bft) 95,61 %
06.06.2017 05:20 15,4 C 15,6 C 13,9 C 73 % 0 lf 999,8 hPa 0,0 l/m 0 min 0 min 5 W/m 23,0 km/h (4 Bft) 95,61 %
06.06.2017 05:25 15,4 C 15,6 C 13,9 C 73 % 0 lf 999,8 hPa 0,0 l/m 0 min 0 min 5 W/m 18,8 km/h (3 Bft) 98,25 %
06.06.2017 05:30 15,4 C 15,6 C 13,9 C 73 % 0 lf 999,7 hPa 0,0 l/m 0 min 0 min 7 W/m 20,9 km/h (4 Bft) 95,61 %
06.06.2017 05:35 15,4 C 15,0 C 13,9 C 73 % 0 lf 999,7 hPa 0,0 l/m 0 min 0 min 8 W/m 16,7 km/h (3 Bft) 93,86 %
06.06.2017 05:40 15,4 C 15,0 C 13,9 C 74 % 0 lf 999,6 hPa 0,0 l/m 0 min 0 min 10 W/m 20,9 km/h (4 Bft) 50,88 %
06.06.2017 05:46 15,3 C 15,0 C 13,9 C 74 % 0 lf 999,5 hPa 0,0 l/m 0 min 0 min 14 W/m 14,6 km/h (3 Bft) 70,83 %
06.06.2017 05:48 15,3 C 15,0 C 13,9 C 75 % 0 lf 999,3 hPa 0,0 l/m 0 min 0 min 15 W/m 20,9 km/h (4 Bft) 68,09 %
06.06.2017 05:50 15,3 C 15,0 C 13,9 C 75 % 0 lf 999,3 hPa 0,0 l/m 0 min 0 min 17 W/m 16,7 km/h (3 Bft) 71,74 %
06.06.2017 05:52 15,3 C 15,0 C 13,9 C 75 % 0 lf 999,2 hPa 0,0 l/m 0 min 0 min 19 W/m 14,6 km/h (3 Bft) 75,00 %
06.06.2017 05:54 15,3 C 15,0 C 13,9 C 75 % 0 lf 999,1 hPa 0,0 l/m 0 min 0 min 19 W/m 20,9 km/h (4 Bft) 76,09 %
06.06.2017 05:56 15,3 C 15,0 C 13,9 C 75 % 0 lf 999,1 hPa 0,0 l/m 0 min 0 min 20 W/m 20,9 km/h (4 Bft) 76,60 %
06.06.2017 05:58 15,3 C 15,6 C 13,9 C 75 % 0 lf 999,1 hPa 0,0 l/m 0 min 0 min 21 W/m 16,7 km/h (3 Bft) 68,09 %
06.06.2017 06:00 15,3 C 15,6 C 13,9 C 75 % 0 lf 999,1 hPa 0,0 l/m 0 min 0 min 21 W/m 18,8 km/h (3 Bft) 70,21 %
06.06.2017 06:02 15,3 C 15,6 C 13,9 C 76 % 0 lf 999,1 hPa 0,0 l/m 0 min 0 min 23 W/m 14,6 km/h (3 Bft) 68,09 %
06.06.2017 06:04 15,3 C 15,6 C 13,9 C 76 % 0 lf 999,1 hPa 0,0 l/m 0 min 0 min 23 W/m 14,6 km/h (3 Bft) 67,39 %
06.06.2017 06:06 15,3 C 15,6 C 13,9 C 76 % 0 lf 999,1 hPa 0,0 l/m 0 min 0 min 24 W/m 16,7 km/h (3 Bft) 68,09 %
06.06.2017 06:08 15,3 C 15,6 C 13,9 C 76 % 0 lf 999,0 hPa 0,0 l/m 0 min 0 min 26 W/m 16,7 km/h (3 Bft) 76,60 %
06.06.2017 06:10 15,3 C 15,6 C 14,4 C 76 % 0 lf 999,0 hPa 0,0 l/m 0 min 0 min 26 W/m 16,7 km/h (3 Bft) 73,47 %
06.06.2017 06:12 15,3 C 15,6 C 14,4 C 76 % 0 lf 999,0 hPa 0,0 l/m 0 min 0 min 28 W/m 18,8 km/h (3 Bft) 72,34 %
06.06.2017 06:14 15,3 C 15,6 C 14,4 C 76 % 0 lf 999,0 hPa 0,0 l/m 0 min 0 min 27 W/m 20,9 km/h (4 Bft) 72,34 %
06.06.2017 06:16 15,3 C 15,6 C 14,4 C 76 % 0 lf 999,0 hPa 0,0 l/m 0 min 0 min 26 W/m 16,7 km/h (3 Bft) 71,74 %
06.06.2017 06:18 15,3 C 15,6 C 14,4 C 76 % 0 lf 999,0 hPa 0,0 l/m 0 min 0 min 26 W/m 16,7 km/h (3 Bft) 74,47 %
06.06.2017 06:20 15,4 C 15,6 C 14,4 C 76 % 0 lf 998,9 hPa 0,0 l/m 0 min 0 min 27 W/m 18,8 km/h (3 Bft) 74,47 %
06.06.2017 06:22 15,4 C 15,6 C 14,4 C 76 % 0 lf 999,0 hPa 0,0 l/m 0 min 0 min 30 W/m 23,0 km/h (4 Bft) 69,39 %
06.06.2017 06:24 15,4 C 15,6 C 14,4 C 76 % 0 lf 998,9 hPa 0,0 l/m 0 min 0 min 32 W/m 16,7 km/h (3 Bft) 71,74 %
06.06.2017 06:26 15,4 C 15,6 C 14,4 C 77 % 0 lf 998,9 hPa 0,0 l/m 0 min 0 min 32 W/m 18,8 km/h (3 Bft) 74,47 %
06.06.2017 06:28 15,4 C 15,6 C 14,4 C 77 % 0 lf 998,8 hPa 0,0 l/m 0 min 0 min 33 W/m 16,7 km/h (3 Bft) 72,34 %
06.06.2017 06:30 15,4 C 15,6 C 14,4 C 77 % 0 lf 998,7 hPa 0,0 l/m 0 min 0 min 35 W/m 14,6 km/h (3 Bft) 68,09 %
06.06.2017 06:32 15,5 C 15,6 C 14,4 C 77 % 0 lf 998,7 hPa 0,0 l/m 0 min 0 min 34 W/m 20,9 km/h (4 Bft) 65,96 %
06.06.2017 06:34 15,5 C 15,6 C 14,4 C 77 % 0 lf 998,7 hPa 0,0 l/m 0 min 0 min 33 W/m 16,7 km/h (3 Bft) 76,60 %
06.06.2017 06:36 15,5 C 15,6 C 14,4 C 77 % 0 lf 998,7 hPa 0,0 l/m 0 min 0 min 35 W/m 16,7 km/h (3 Bft) 65,22 %
06.06.2017 06:38 15,5 C 16,1 C 14,4 C 77 % 0 lf 998,7 hPa 0,0 l/m 0 min 0 min 35 W/m 16,7 km/h (3 Bft) 63,83 %
06.06.2017 06:40 15,6 C 16,1 C 15,0 C 77 % 0 lf 998,7 hPa 0,0 l/m 0 min 0 min 34 W/m 16,7 km/h (3 Bft) 59,57 %
06.06.2017 06:42 15,6 C 16,1 C 15,0 C 77 % 0 lf 998,6 hPa 0,0 l/m 0 min 0 min 33 W/m 16,7 km/h (3 Bft) 59,57 %
06.06.2017 06:44 15,6 C 16,1 C 15,0 C 77 % 0 lf 998,6 hPa 0,0 l/m 0 min 0 min 34 W/m 18,8 km/h (3 Bft) 61,70 %
06.06.2017 06:46 15,6 C 16,1 C 15,0 C 77 % 0 lf 998,6 hPa 0,0 l/m 0 min 0 min 38 W/m 18,8 km/h (3 Bft) 68,09 %
06.06.2017 06:48 15,6 C 16,1 C 15,0 C 77 % 0 lf 998,5 hPa 0,0 l/m 0 min 0 min 43 W/m 20,9 km/h (4 Bft) 65,22 %
06.06.2017 06:50 15,7 C 16,1 C 15,0 C 77 % 0 lf 998,5 hPa 0,0 l/m 0 min 0 min 49 W/m 18,8 km/h (3 Bft) 65,96 %
06.06.2017 06:52 15,7 C 16,1 C 15,0 C 77 % 0 lf 998,5 hPa 0,0 l/m 0 min 0 min 51 W/m 14,6 km/h (3 Bft) 63,83 %
06.06.2017 06:54 15,7 C 16,1 C 15,0 C 77 % 0 lf 998,4 hPa 0,0 l/m 0 min 0 min 49 W/m 20,9 km/h (4 Bft) 61,70 %
06.06.2017 06:56 15,7 C 16,1 C 15,0 C 77 % 0 lf 998,5 hPa 0,0 l/m 0 min 0 min 46 W/m 16,7 km/h (3 Bft) 68,09 %
06.06.2017 06:58 15,7 C 16,1 C 15,0 C 77 % 0 lf 998,4 hPa 0,0 l/m 0 min 0 min 45 W/m 20,9 km/h (4 Bft) 70,21 %
06.06.2017 07:00 15,7 C 16,1 C 15,0 C 77 % 0 lf 998,5 hPa 0,0 l/m 0 min 0 min 44 W/m 25,1 km/h (4 Bft) 60,87 %
06.06.2017 07:02 15,8 C 16,1 C 15,0 C 77 % 0 lf 998,4 hPa 0,0 l/m 0 min 0 min 49 W/m 18,8 km/h (3 Bft) 70,21 %
06.06.2017 07:04 15,8 C 16,1 C 15,0 C 77 % 0 lf 998,3 hPa 0,0 l/m 0 min 0 min 55 W/m 16,7 km/h (3 Bft) 65,96 %
06.06.2017 07:06 15,8 C 16,1 C 15,0 C 77 % 0 lf 998,3 hPa 0,0 l/m 0 min 0 min 61 W/m 14,6 km/h (3 Bft) 63,83 %
06.06.2017 07:08 15,8 C 16,1 C 15,0 C 77 % 0 lf 998,4 hPa 0,0 l/m 0 min 0 min 59 W/m 16,7 km/h (3 Bft) 72,34 %
06.06.2017 07:10 15,9 C 16,7 C 15,6 C 77 % 0 lf 998,4 hPa 0,0 l/m 0 min 0 min 62 W/m 20,9 km/h (4 Bft) 67,39 %
06.06.2017 07:12 15,9 C 16,7 C 15,6 C 77 % 0 lf 998,5 hPa 0,0 l/m 0 min 0 min 63 W/m 18,8 km/h (3 Bft) 57,45 %
06.06.2017 07:14 15,9 C 16,7 C 15,6 C 77 % 0 lf 998,5 hPa 0,0 l/m 0 min 0 min 63 W/m 23,0 km/h (4 Bft) 68,09 %
06.06.2017 07:16 15,9 C 16,7 C 15,6 C 77 % 0 lf 998,4 hPa 0,0 l/m 0 min 0 min 65 W/m 20,9 km/h (4 Bft) 69,05 %
06.06.2017 07:18 15,9 C 16,7 C 15,6 C 77 % 0 lf 998,4 hPa 0,0 l/m 0 min 0 min 73 W/m 25,1 km/h (4 Bft) 61,70 %
06.06.2017 07:20 16,0 C 16,7 C 15,6 C 77 % 0 lf 998,4 hPa 0,0 l/m 0 min 0 min 78 W/m 18,8 km/h (3 Bft) 66,10 %
06.06.2017 07:22 16,0 C 16,7 C 15,6 C 77 % 0 lf 998,4 hPa 0,0 l/m 0 min 0 min 79 W/m 16,7 km/h (3 Bft) 65,71 %
06.06.2017 07:24 16,0 C 16,7 C 15,6 C 77 % 0 lf 998,5 hPa 0,0 l/m 0 min 0 min 79 W/m 14,6 km/h (3 Bft) 61,70 %
06.06.2017 07:26 16,1 C 16,7 C 16,1 C 77 % 0 lf 998,4 hPa 0,0 l/m 0 min 0 min 82 W/m 16,7 km/h (3 Bft) 69,57 %
06.06.2017 07:28 16,1 C 16,7 C 16,1 C 77 % 0 lf 998,4 hPa 0,0 l/m 0 min 0 min 83 W/m 14,6 km/h (3 Bft) 70,21 %
06.06.2017 07:30 16,1 C 16,7 C 16,1 C 77 % 0 lf 998,5 hPa 0,0 l/m 0 min 0 min 87 W/m 14,6 km/h (3 Bft) 70,21 %
06.06.2017 07:32 16,1 C 16,7 C 16,1 C 77 % 0 lf 998,5 hPa 0,0 l/m 0 min 0 min 85 W/m 14,6 km/h (3 Bft) 65,96 %
06.06.2017 07:34 16,2 C 16,7 C 16,1 C 77 % 0 lf 998,4 hPa 0,0 l/m 0 min 0 min 75 W/m 16,7 km/h (3 Bft) 72,34 %
06.06.2017 07:36 16,2 C 16,7 C 16,1 C 77 % 0 lf 998,5 hPa 0,0 l/m 0 min 0 min 68 W/m 16,7 km/h (3 Bft) 63,83 %
06.06.2017 07:38 16,2 C 17,2 C 16,1 C 76 % 0 lf 998,4 hPa 0,0 l/m 0 min 0 min 66 W/m 16,7 km/h (3 Bft) 60,87 %
06.06.2017 07:40 16,2 C 17,2 C 16,1 C 76 % 0 lf 998,4 hPa 0,0 l/m 0 min 0 min 58 W/m 25,1 km/h (4 Bft) 65,96 %
06.06.2017 07:42 16,3 C 17,2 C 16,1 C 75 % 0 lf 998,4 hPa 0,0 l/m 0 min 0 min 49 W/m 18,8 km/h (3 Bft) 70,21 %
06.06.2017 07:44 16,3 C 17,2 C 16,1 C 75 % 0 lf 998,4 hPa 0,0 l/m 0 min 0 min 40 W/m 25,1 km/h (4 Bft) 65,96 %
06.06.2017 07:46 16,4 C 17,2 C 16,1 C 74 % 0 lf 998,4 hPa 0,0 l/m 0 min 0 min 37 W/m 16,7 km/h (3 Bft) 57,45 %
06.06.2017 07:48 16,4 C 17,2 C 16,1 C 74 % 0 lf 998,4 hPa 0,0 l/m 0 min 0 min 35 W/m 14,6 km/h (3 Bft) 68,09 %
06.06.2017 07:50 16,4 C 16,7 C 15,6 C 74 % 0 lf 998,4 hPa 0,0 l/m 0 min 0 min 35 W/m 23,0 km/h (4 Bft) 69,57 %
06.06.2017 07:52 16,5 C 16,7 C 15,6 C 74 % 5 lf 998,4 hPa 0,0 l/m 0 min 2 min 33 W/m 20,9 km/h (4 Bft) 63,79 %
06.06.2017 07:54 16,6 C 16,1 C 15,0 C 74 % 4 lf 998,4 hPa 0,0 l/m 0 min 2 min 36 W/m 14,6 km/h (3 Bft) 57,45 %
06.06.2017 07:56 16,6 C 15,6 C 14,4 C 75 % 15 lf 998,4 hPa 0,0 l/m 0 min 2 min 37 W/m 23,0 km/h (4 Bft) 76,60 %
06.06.2017 07:58 16,6 C 14,4 C 13,3 C 76 % 15 lf 998,4 hPa 0,0 l/m 0 min 2 min 39 W/m 20,9 km/h (4 Bft) 67,39 %
06.06.2017 08:00 16,6 C 14,4 C 12,8 C 76 % 15 lf 998,4 hPa 0,0 l/m 0 min 2 min 39 W/m 18,8 km/h (3 Bft) 72,22 %
06.06.2017 08:02 16,6 C 13,9 C 12,8 C 77 % 15 lf 998,4 hPa 0,2 l/m 0 min 2 min 39 W/m 16,7 km/h (3 Bft) 65,52 %
06.06.2017 08:04 16,5 C 13,9 C 12,8 C 77 % 14 lf 998,4 hPa 0,0 l/m 0 min 2 min 37 W/m 20,9 km/h (4 Bft) 63,83 %
06.06.2017 08:06 16,4 C 13,9 C 12,2 C 77 % 15 lf 998,4 hPa 0,0 l/m 0 min 2 min 37 W/m 16,7 km/h (3 Bft) 68,09 %
06.06.2017 08:08 16,4 C 13,3 C 12,2 C 78 % 14 lf 998,4 hPa 0,0 l/m 0 min 2 min 40 W/m 16,7 km/h (3 Bft) 63,83 %
06.06.2017 08:10 16,3 C 13,3 C 12,2 C 79 % 15 lf 998,4 hPa 0,0 l/m 0 min 2 min 43 W/m 12,6 km/h (3 Bft) 73,91 %
06.06.2017 08:12 16,3 C 13,3 C 12,8 C 79 % 15 lf 998,4 hPa 0,2 l/m 0 min 2 min 44 W/m 18,8 km/h (3 Bft) 63,83 %
06.06.2017 08:14 16,2 C 13,3 C 12,8 C 80 % 15 lf 998,4 hPa 0,0 l/m 0 min 2 min 41 W/m 10,5 km/h (2 Bft) 70,21 %
06.06.2017 08:16 16,2 C 13,3 C 12,8 C 80 % 15 lf 998,4 hPa 0,0 l/m 0 min 2 min 40 W/m 12,6 km/h (3 Bft) 65,96 %
06.06.2017 08:18 16,1 C 13,3 C 12,8 C 81 % 15 lf 998,5 hPa 0,0 l/m 0 min 2 min 39 W/m 8,4 km/h (2 Bft) 65,96 %
06.06.2017 08:20 16,1 C 13,3 C 12,8 C 81 % 15 lf 998,4 hPa 0,2 l/m 0 min 2 min 41 W/m 8,4 km/h (2 Bft) 68,09 %
06.06.2017 08:22 16,1 C 13,3 C 12,8 C 81 % 15 lf 998,5 hPa 0,0 l/m 0 min 2 min 45 W/m 12,6 km/h (3 Bft) 68,42 %
06.06.2017 08:24 16,0 C 13,3 C 12,8 C 82 % 15 lf 998,4 hPa 0,2 l/m 0 min 2 min 53 W/m 8,4 km/h (2 Bft) 63,83 %
06.06.2017 08:26 15,9 C 13,3 C 12,8 C 83 % 15 lf 998,4 hPa 0,0 l/m 0 min 2 min 55 W/m 8,4 km/h (2 Bft) 63,04 %
06.06.2017 08:28 15,9 C 13,3 C 12,8 C 83 % 15 lf 998,4 hPa 0,0 l/m 0 min 2 min 52 W/m 8,4 km/h (2 Bft) 65,96 %
06.06.2017 08:30 15,9 C 13,3 C 12,8 C 83 % 15 lf 998,3 hPa 0,2 l/m 0 min 2 min 51 W/m 8,4 km/h (2 Bft) 72,34 %
06.06.2017 08:33 15,8 C 13,9 C 12,8 C 83 % 15 lf 998,3 hPa 0,0 l/m 0 min 3 min 55 W/m 4,2 km/h (1 Bft) 62,86 %
06.06.2017 08:34 15,8 C 13,9 C 12,8 C 84 % 15 lf 998,3 hPa 0,0 l/m 0 min 1 min 58 W/m 4,2 km/h (1 Bft) 66,67 %
06.06.2017 08:36 15,8 C 13,3 C 12,8 C 84 % 15 lf 998,3 hPa 0,0 l/m 0 min 2 min 58 W/m 4,2 km/h (1 Bft) 59,18 %
06.06.2017 08:38 15,7 C 13,3 C 13,3 C 84 % 15 lf 998,3 hPa 0,0 l/m 0 min 2 min 60 W/m 8,4 km/h (2 Bft) 57,45 %
06.06.2017 08:40 15,7 C 13,3 C 13,3 C 85 % 15 lf 998,3 hPa 0,2 l/m 0 min 2 min 66 W/m 6,3 km/h (2 Bft) 58,54 %
06.06.2017 08:42 15,7 C 13,9 C 13,3 C 85 % 15 lf 998,3 hPa 0,0 l/m 0 min 2 min 69 W/m 2,1 km/h (1 Bft) 64,15 %
06.06.2017 08:44 15,6 C 13,9 C 13,3 C 85 % 15 lf 998,3 hPa 0,0 l/m 0 min 2 min 69 W/m 6,3 km/h (2 Bft) 65,12 %
06.06.2017 08:46 15,6 C 13,9 C 13,3 C 85 % 15 lf 998,2 hPa 0,0 l/m 0 min 2 min 71 W/m 6,3 km/h (2 Bft) 72,00 %
06.06.2017 08:48 15,6 C 13,9 C 13,3 C 86 % 15 lf 998,2 hPa 0,0 l/m 0 min 2 min 68 W/m 6,3 km/h (2 Bft) 76,60 %
06.06.2017 08:50 15,6 C 13,9 C 13,3 C 86 % 15 lf 998,1 hPa 0,0 l/m 0 min 2 min 65 W/m 8,4 km/h (2 Bft) 70,21 %
06.06.2017 08:52 15,5 C 13,9 C 13,3 C 86 % 15 lf 998,1 hPa 0,0 l/m 0 min 2 min 65 W/m 6,3 km/h (2 Bft) 68,09 %
06.06.2017 08:54 15,5 C 13,9 C 13,3 C 87 % 15 lf 998,1 hPa 0,0 l/m 0 min 2 min 73 W/m 4,2 km/h (1 Bft) 62,79 %
06.06.2017 08:56 15,5 C 14,4 C 13,3 C 87 % 15 lf 998,0 hPa 0,0 l/m 0 min 2 min 85 W/m 10,5 km/h (2 Bft) 66,00 %
06.06.2017 08:58 15,4 C 13,9 C 13,3 C 87 % 15 lf 998,0 hPa 0,0 l/m 0 min 2 min 102 W/m 8,4 km/h (2 Bft) 55,32 %
06.06.2017 09:00 15,4 C 13,9 C 13,3 C 87 % 15 lf 998,0 hPa 0,0 l/m 0 min 2 min 115 W/m 10,5 km/h (2 Bft) 51,06 %
06.06.2017 09:02 15,4 C 13,9 C 13,3 C 88 % 15 lf 997,9 hPa 0,0 l/m 0 min 2 min 123 W/m 10,5 km/h (2 Bft) 46,51 %
06.06.2017 09:04 15,3 C 13,9 C 13,3 C 88 % 15 lf 997,9 hPa 0,0 l/m 0 min 2 min 123 W/m 14,6 km/h (3 Bft) 23,40 %
06.06.2017 09:06 15,3 C 14,4 C 13,9 C 88 % 15 lf 997,8 hPa 0,0 l/m 0 min 2 min 123 W/m 8,4 km/h (2 Bft) 12,00 %
06.06.2017 09:08 15,3 C 14,4 C 13,9 C 88 % 15 lf 997,8 hPa 0,0 l/m 0 min 2 min 123 W/m 8,4 km/h (2 Bft) 65,83 %
06.06.2017 09:10 15,3 C 14,4 C 13,3 C 88 % 15 lf 997,7 hPa 0,0 l/m 0 min 2 min 123 W/m 8,4 km/h (2 Bft) 65,83 %
06.06.2017 09:12 15,3 C 13,9 C 13,3 C 88 % 15 lf 997,7 hPa 0,0 l/m 0 min 2 min 123 W/m 8,4 km/h (2 Bft) 65,83 %
06.06.2017 09:14 15,3 C 13,9 C 13,3 C 88 % 15 lf 997,7 hPa 0,0 l/m 0 min 2 min 123 W/m 8,4 km/h (2 Bft) 65,83 %
06.06.2017 09:16 15,2 C 13,9 C 13,3 C 88 % 15 lf 997,6 hPa 0,0 l/m 0 min 2 min 123 W/m 8,4 km/h (2 Bft) 4,76 %
06.06.2017 09:18 15,2 C 13,9 C 13,3 C 88 % 15 lf 997,6 hPa 0,0 l/m 0 min 2 min 123 W/m 8,4 km/h (2 Bft) 65,56 %
06.06.2017 09:20 15,2 C 13,9 C 13,3 C 89 % 15 lf 997,7 hPa 0,2 l/m 0 min 2 min 109 W/m 23,0 km/h (4 Bft) 100,00 %
06.06.2017 09:22 15,2 C 13,9 C 13,3 C 89 % 15 lf 997,7 hPa 0,0 l/m 0 min 2 min 94 W/m 16,7 km/h (3 Bft) 97,87 %
06.06.2017 09:24 15,2 C 13,9 C 13,3 C 89 % 15 lf 997,7 hPa 0,0 l/m 0 min 2 min 98 W/m 18,8 km/h (3 Bft) 95,92 %
06.06.2017 09:26 15,2 C 13,9 C 13,3 C 89 % 15 lf 997,6 hPa 0,0 l/m 0 min 2 min 96 W/m 18,8 km/h (3 Bft) 91,67 %
06.06.2017 09:28 15,1 C 13,9 C 13,3 C 90 % 15 lf 997,6 hPa 0,0 l/m 0 min 2 min 85 W/m 16,7 km/h (3 Bft) 93,62 %
06.06.2017 09:30 15,1 C 13,9 C 13,3 C 90 % 15 lf 997,6 hPa 0,0 l/m 0 min 2 min 79 W/m 27,2 km/h (4 Bft) 95,35 %
06.06.2017 09:32 15,0 C 13,9 C 12,8 C 90 % 14 lf 997,5 hPa 0,0 l/m 0 min 2 min 77 W/m 18,8 km/h (3 Bft) 92,00 %
06.06.2017 09:34 15,0 C 13,9 C 13,3 C 90 % 12 lf 997,5 hPa 0,0 l/m 0 min 2 min 76 W/m 18,8 km/h (3 Bft) 91,49 %
06.06.2017 09:36 14,9 C 13,9 C 12,8 C 90 % 10 lf 997,5 hPa 0,0 l/m 0 min 2 min 77 W/m 16,7 km/h (3 Bft) 93,62 %
06.06.2017 09:38 14,9 C 13,9 C 12,8 C 90 % 7 lf 997,4 hPa 0,0 l/m 0 min 2 min 85 W/m 18,8 km/h (3 Bft) 88,37 %
06.06.2017 09:40 14,9 C 13,9 C 13,3 C 90 % 4 lf 997,4 hPa 0,0 l/m 0 min 2 min 92 W/m 20,9 km/h (4 Bft) 90,00 %
06.06.2017 09:42 14,9 C 13,9 C 13,3 C 90 % 2 lf 997,4 hPa 0,0 l/m 0 min 2 min 96 W/m 18,8 km/h (3 Bft) 93,75 %
06.06.2017 09:44 14,9 C 13,9 C 12,8 C 90 % 0 lf 997,4 hPa 0,0 l/m 0 min 2 min 96 W/m 18,8 km/h (3 Bft) 93,48 %
06.06.2017 09:46 14,9 C 13,9 C 13,3 C 90 % 0 lf 997,4 hPa 0,0 l/m 0 min 2 min 93 W/m 16,7 km/h (3 Bft) 93,02 %
06.06.2017 09:48 14,9 C 13,9 C 13,3 C 90 % 1 lf 997,3 hPa 0,0 l/m 0 min 2 min 95 W/m 23,0 km/h (4 Bft) 96,00 %
06.06.2017 09:50 14,9 C 13,9 C 13,3 C 90 % 0 lf 997,3 hPa 0,0 l/m 0 min 2 min 96 W/m 23,0 km/h (4 Bft) 95,83 %
06.06.2017 09:52 14,9 C 13,9 C 13,3 C 90 % 0 lf 997,3 hPa 0,0 l/m 0 min 2 min 93 W/m 18,8 km/h (3 Bft) 95,74 %
06.06.2017 09:54 14,9 C 13,9 C 12,8 C 89 % 0 lf 997,3 hPa 0,0 l/m 0 min 2 min 95 W/m 18,8 km/h (3 Bft) 91,30 %
06.06.2017 09:56 14,9 C 14,4 C 12,8 C 89 % 1 lf 997,2 hPa 0,0 l/m 0 min 2 min 100 W/m 14,6 km/h (3 Bft) 93,18 %
06.06.2017 09:58 14,9 C 14,4 C 13,3 C 89 % 0 lf 997,3 hPa 0,0 l/m 0 min 2 min 98 W/m 20,9 km/h (4 Bft) 91,84 %
06.06.2017 10:00 14,9 C 14,4 C 13,3 C 89 % 1 lf 997,3 hPa 0,0 l/m 0 min 2 min 93 W/m 14,6 km/h (3 Bft) 91,67 %
06.06.2017 10:02 14,9 C 14,4 C 13,3 C 90 % 0 lf 997,2 hPa 0,0 l/m 0 min 2 min 116 W/m 16,7 km/h (3 Bft) 87,23 %
06.06.2017 10:04 14,9 C 14,4 C 13,3 C 90 % 0 lf 997,3 hPa 0,0 l/m 0 min 2 min 133 W/m 23,0 km/h (4 Bft) 95,35 %
06.06.2017 10:06 15,0 C 14,4 C 13,3 C 90 % 0 lf 997,2 hPa 0,0 l/m 0 min 2 min 126 W/m 20,9 km/h (4 Bft) 96,00 %
06.06.2017 10:08 15,0 C 14,4 C 13,3 C 90 % 1 lf 997,3 hPa 0,0 l/m 0 min 2 min 102 W/m 23,0 km/h (4 Bft) 95,74 %
06.06.2017 10:10 15,0 C 14,4 C 13,3 C 89 % 1 lf 997,1 hPa 0,0 l/m 0 min 2 min 93 W/m 16,7 km/h (3 Bft) 95,74 %
06.06.2017 10:12 15,0 C 14,4 C 13,3 C 89 % 2 lf 997,2 hPa 0,0 l/m 0 min 2 min 104 W/m 18,8 km/h (3 Bft) 95,74 %
06.06.2017 10:14 15,0 C 14,4 C 13,3 C 89 % 1 lf 997,3 hPa 0,0 l/m 0 min 2 min 109 W/m 31,4 km/h (5 Bft) 100,00 %
06.06.2017 10:16 15,1 C 14,4 C 13,3 C 89 % 1 lf 997,2 hPa 0,0 l/m 0 min 2 min 126 W/m 14,6 km/h (3 Bft) 100,00 %
06.06.2017 10:18 15,1 C 14,4 C 13,3 C 89 % 0 lf 997,3 hPa 0,0 l/m 0 min 2 min 143 W/m 18,8 km/h (3 Bft) 97,87 %
06.06.2017 10:20 15,1 C 14,4 C 13,3 C 89 % 0 lf 997,2 hPa 0,0 l/m 0 min 2 min 137 W/m 20,9 km/h (4 Bft) 100,00 %
06.06.2017 10:22 15,1 C 14,4 C 13,3 C 89 % 0 lf 997,3 hPa 0,0 l/m 0 min 2 min 123 W/m 20,9 km/h (4 Bft) 97,87 %
06.06.2017 10:24 15,1 C 14,4 C 13,3 C 89 % 1 lf 997,2 hPa 0,0 l/m 0 min 2 min 132 W/m 14,6 km/h (3 Bft) 97,67 %
06.06.2017 10:26 15,2 C 14,4 C 13,3 C 89 % 0 lf 997,2 hPa 0,0 l/m 0 min 2 min 153 W/m 16,7 km/h (3 Bft) 100,00 %
06.06.2017 10:28 15,2 C 14,4 C 13,9 C 89 % 0 lf 997,1 hPa 0,0 l/m 0 min 2 min 146 W/m 14,6 km/h (3 Bft) 95,83 %
06.06.2017 10:30 15,2 C 14,4 C 13,9 C 89 % 1 lf 997,1 hPa 0,0 l/m 0 min 2 min 158 W/m 23,0 km/h (4 Bft) 97,83 %
06.06.2017 10:32 15,2 C 14,4 C 13,9 C 89 % 0 lf 997,1 hPa 0,0 l/m 0 min 2 min 171 W/m 20,9 km/h (4 Bft) 95,45 %
06.06.2017 10:34 15,2 C 15,0 C 13,9 C 89 % 0 lf 997,1 hPa 0,0 l/m 0 min 0 min 179 W/m 16,7 km/h (3 Bft) 100,00 %
06.06.2017 10:36 15,3 C 15,0 C 13,9 C 89 % 0 lf 997,1 hPa 0,0 l/m 0 min 0 min 158 W/m 25,1 km/h (4 Bft) 100,00 %
06.06.2017 10:38 15,3 C 15,6 C 13,9 C 89 % 0 lf 997,1 hPa 0,0 l/m 0 min 2 min 169 W/m 16,7 km/h (3 Bft) 100,00 %
06.06.2017 10:40 15,3 C 15,0 C 13,9 C 89 % 0 lf 997,2 hPa 0,0 l/m 0 min 0 min 188 W/m 14,6 km/h (3 Bft) 97,67 %
06.06.2017 10:42 15,4 C 15,6 C 13,9 C 88 % 0 lf 997,2 hPa 0,0 l/m 0 min 0 min 153 W/m 20,9 km/h (4 Bft) 100,00 %
06.06.2017 10:44 15,4 C 15,6 C 13,9 C 88 % 2 lf 997,2 hPa 0,0 l/m 0 min 2 min 166 W/m 20,9 km/h (4 Bft) 100,00 %
06.06.2017 10:46 15,5 C 15,6 C 13,9 C 88 % 0 lf 997,2 hPa 0,0 l/m 0 min 2 min 184 W/m 20,9 km/h (4 Bft) 95,74 %
06.06.2017 10:48 15,6 C 15,6 C 14,4 C 88 % 2 lf 997,2 hPa 0,0 l/m 0 min 2 min 233 W/m 20,9 km/h (4 Bft) 97,87 %
06.06.2017 10:50 15,6 C 15,6 C 14,4 C 88 % 0 lf 997,1 hPa 0,0 l/m 0 min 2 min 227 W/m 25,1 km/h (4 Bft) 97,67 %
06.06.2017 10:52 15,7 C 15,6 C 14,4 C 88 % 0 lf 997,1 hPa 0,0 l/m 0 min 2 min 204 W/m 31,4 km/h (5 Bft) 97,87 %
06.06.2017 10:54 15,7 C 15,6 C 13,9 C 87 % 1 lf 997,1 hPa 0,0 l/m 0 min 2 min 163 W/m 33,5 km/h (5 Bft) 98,00 %
06.06.2017 10:56 15,7 C 15,6 C 13,9 C 87 % 6 lf 997,2 hPa 0,0 l/m 0 min 2 min 139 W/m 33,5 km/h (5 Bft) 95,74 %
06.06.2017 10:58 15,8 C 15,0 C 13,9 C 87 % 4 lf 997,3 hPa 0,0 l/m 0 min 2 min 122 W/m 31,4 km/h (5 Bft) 100,00 %
06.06.2017 11:00 15,8 C 15,0 C 13,9 C 87 % 3 lf 997,4 hPa 0,0 l/m 0 min 2 min 151 W/m 27,2 km/h (4 Bft) 100,00 %
06.06.2017 11:02 15,9 C 15,0 C 13,9 C 87 % 0 lf 997,4 hPa 0,0 l/m 0 min 2 min 139 W/m 39,7 km/h (6 Bft) 98,00 %
06.06.2017 11:04 15,9 C 15,0 C 13,9 C 87 % 0 lf 997,3 hPa 0,0 l/m 0 min 2 min 129 W/m 18,8 km/h (3 Bft) 97,87 %
06.06.2017 11:06 15,9 C 15,0 C 13,9 C 87 % 0 lf 997,4 hPa 0,0 l/m 0 min 2 min 145 W/m 25,1 km/h (4 Bft) 95,74 %
06.06.2017 11:08 15,9 C 15,0 C 13,9 C 87 % 0 lf 997,4 hPa 0,0 l/m 0 min 2 min 149 W/m 25,1 km/h (4 Bft) 95,35 %
06.06.2017 11:10 15,9 C 15,6 C 14,4 C 86 % 0 lf 997,4 hPa 0,0 l/m 0 min 2 min 149 W/m 25,1 km/h (4 Bft) 98,00 %
06.06.2017 11:12 16,0 C 15,6 C 14,4 C 86 % 0 lf 997,6 hPa 0,0 l/m 0 min 2 min 154 W/m 31,4 km/h (5 Bft) 97,92 %
06.06.2017 11:14 16,0 C 15,6 C 14,4 C 86 % 3 lf 997,4 hPa 0,0 l/m 0 min 2 min 167 W/m 29,3 km/h (5 Bft) 97,87 %
06.06.2017 11:16 16,0 C 16,1 C 14,4 C 86 % 1 lf 997,5 hPa 0,0 l/m 0 min 2 min 168 W/m 27,2 km/h (4 Bft) 95,65 %
06.06.2017 11:18 16,1 C 16,1 C 14,4 C 86 % 2 lf 997,4 hPa 0,0 l/m 0 min 2 min 165 W/m 31,4 km/h (5 Bft) 97,87 %
06.06.2017 11:20 16,1 C 15,6 C 14,4 C 86 % 15 lf 997,6 hPa 0,2 l/m 0 min 2 min 164 W/m 25,1 km/h (4 Bft) 95,74 %
06.06.2017 11:22 16,1 C 15,6 C 14,4 C 86 % 15 lf 997,6 hPa 0,0 l/m 0 min 2 min 167 W/m 27,2 km/h (4 Bft) 97,87 %
06.06.2017 11:24 16,1 C 15,0 C 13,9 C 86 % 15 lf 997,7 hPa 0,0 l/m 0 min 2 min 120 W/m 33,5 km/h (5 Bft) 95,74 %
06.06.2017 11:26 16,1 C 15,0 C 13,3 C 86 % 15 lf 997,6 hPa 0,2 l/m 0 min 2 min 68 W/m 33,5 km/h (5 Bft) 97,87 %
06.06.2017 11:28 16,1 C 14,4 C 13,3 C 86 % 15 lf 997,8 hPa 0,0 l/m 0 min 2 min 54 W/m 41,8 km/h (6 Bft) 93,48 %
06.06.2017 11:30 16,0 C 13,9 C 12,8 C 86 % 15 lf 997,8 hPa 0,2 l/m 0 min 2 min 52 W/m 31,4 km/h (5 Bft) 97,87 %
06.06.2017 11:32 15,9 C 13,9 C 12,8 C 86 % 15 lf 998,2 hPa 0,4 l/m 0 min 2 min 74 W/m 50,2 km/h (7 Bft) 96,23 %
06.06.2017 11:34 15,8 C 13,3 C 12,8 C 86 % 15 lf 998,1 hPa 0,2 l/m 0 min 2 min 124 W/m 43,9 km/h (6 Bft) 97,14 %
06.06.2017 11:36 15,6 C 13,3 C 12,8 C 86 % 15 lf 998,0 hPa 0,0 l/m 0 min 2 min 128 W/m 46,0 km/h (6 Bft) 96,23 %
06.06.2017 11:38 15,3 C 13,3 C 12,8 C 86 % 15 lf 998,3 hPa 0,0 l/m 0 min 2 min 134 W/m 33,5 km/h (5 Bft) 95,74 %
06.06.2017 11:40 15,2 C 13,9 C 12,8 C 86 % 15 lf 998,2 hPa 0,2 l/m 0 min 2 min 185 W/m 29,3 km/h (5 Bft) 97,83 %
06.06.2017 11:42 15,2 C 13,9 C 13,3 C 87 % 15 lf 998,3 hPa 0,0 l/m 0 min 2 min 206 W/m 31,4 km/h (5 Bft) 97,87 %
06.06.2017 11:44 15,1 C 13,9 C 13,3 C 88 % 15 lf 998,5 hPa 0,0 l/m 0 min 2 min 244 W/m 29,3 km/h (5 Bft) 100,00 %
06.06.2017 11:46 14,9 C 13,9 C 13,3 C 87 % 15 lf 998,4 hPa 0,0 l/m 0 min 0 min 284 W/m 46,0 km/h (6 Bft) 97,87 %
06.06.2017 11:48 14,8 C 13,9 C 13,3 C 86 % 15 lf 998,1 hPa 0,0 l/m 0 min 2 min 286 W/m 27,2 km/h (4 Bft) 95,74 %
06.06.2017 11:50 14,7 C 13,9 C 13,3 C 87 % 15 lf 998,2 hPa 0,0 l/m 0 min 2 min 259 W/m 18,8 km/h (3 Bft) 100,00 %
06.06.2017 11:52 14,7 C 13,9 C 13,3 C 87 % 15 lf 998,3 hPa 0,0 l/m 0 min 2 min 235 W/m 25,1 km/h (4 Bft) 100,00 %
06.06.2017 11:54 14,7 C 13,9 C 12,8 C 87 % 15 lf 998,5 hPa 0,0 l/m 0 min 2 min 241 W/m 31,4 km/h (5 Bft) 97,87 %
06.06.2017 11:56 14,6 C 13,3 C 12,8 C 86 % 15 lf 998,5 hPa 0,0 l/m 0 min 2 min 245 W/m 41,8 km/h (6 Bft) 100,00 %
06.06.2017 11:58 14,5 C 13,3 C 12,8 C 85 % 15 lf 998,6 hPa 0,0 l/m 0 min 0 min 259 W/m 37,7 km/h (5 Bft) 100,00 %
06.06.2017 12:00 14,4 C 13,9 C 12,8 C 84 % 15 lf 998,6 hPa 0,0 l/m 0 min 0 min 296 W/m 46,0 km/h (6 Bft) 100,00 %
06.06.2017 12:02 14,3 C 13,9 C 12,8 C 84 % 15 lf 998,6 hPa 0,0 l/m 0 min 0 min 349 W/m 41,8 km/h (6 Bft) 97,87 %
06.06.2017 12:04 14,3 C 14,4 C 13,9 C 84 % 15 lf 998,6 hPa 0,0 l/m 0 min 0 min 398 W/m 29,3 km/h (5 Bft) 100,00 %
06.06.2017 12:06 14,3 C 14,4 C 13,3 C 84 % 10 lf 998,6 hPa 0,0 l/m 0 min 0 min 383 W/m 35,6 km/h (5 Bft) 97,87 %
06.06.2017 12:08 14,4 C 14,4 C 13,3 C 84 % 1 lf 998,8 hPa 0,0 l/m 0 min 0 min 331 W/m 27,2 km/h (4 Bft) 100,00 %
06.06.2017 12:10 14,4 C 15,0 C 13,9 C 84 % 0 lf 998,9 hPa 0,0 l/m 0 min 0 min 375 W/m 25,1 km/h (4 Bft) 97,87 %
06.06.2017 12:12 14,5 C 16,1 C 14,4 C 84 % 0 lf 999,0 hPa 0,0 l/m 2 min 0 min 414 W/m 27,2 km/h (4 Bft) 93,62 %
06.06.2017 12:14 14,6 C 16,7 C 15,0 C 85 % 0 lf 998,8 hPa 0,0 l/m 2 min 0 min 480 W/m 23,0 km/h (4 Bft) 93,62 %
06.06.2017 12:16 14,7 C 15,6 C 14,4 C 84 % 0 lf 998,8 hPa 0,0 l/m 2 min 0 min 413 W/m 27,2 km/h (4 Bft) 95,65 %
06.06.2017 12:18 14,8 C 16,1 C 14,4 C 84 % 0 lf 998,8 hPa 0,0 l/m 0 min 0 min 398 W/m 23,0 km/h (4 Bft) 93,62 %
06.06.2017 12:20 14,9 C 16,1 C 14,4 C 84 % 0 lf 999,0 hPa 0,0 l/m 0 min 0 min 393 W/m 23,0 km/h (4 Bft) 95,74 %
06.06.2017 12:22 14,9 C 15,6 C 14,4 C 84 % 0 lf 999,1 hPa 0,0 l/m 0 min 0 min 363 W/m 27,2 km/h (4 Bft) 95,74 %
06.06.2017 12:24 15,0 C 15,6 C 13,9 C 83 % 0 lf 998,9 hPa 0,0 l/m 0 min 0 min 358 W/m 25,1 km/h (4 Bft) 93,62 %
06.06.2017 12:26 15,1 C 16,1 C 14,4 C 83 % 0 lf 999,0 hPa 0,0 l/m 0 min 0 min 396 W/m 25,1 km/h (4 Bft) 93,62 %
06.06.2017 12:28 15,1 C 17,8 C 15,0 C 82 % 0 lf 999,0 hPa 0,0 l/m 0 min 0 min 404 W/m 23,0 km/h (4 Bft) 91,30 %
06.06.2017 12:30 15,2 C 18,3 C 15,0 C 83 % 0 lf 998,9 hPa 0,0 l/m 0 min 0 min 411 W/m 16,7 km/h (3 Bft) 93,62 %
06.06.2017 12:32 15,3 C 19,4 C 15,6 C 83 % 0 lf 998,9 hPa 0,0 l/m 2 min 0 min 455 W/m 23,0 km/h (4 Bft) 93,62 %
06.06.2017 12:34 15,4 C 20,0 C 15,6 C 83 % 0 lf 999,0 hPa 0,0 l/m 2 min 0 min 462 W/m 18,8 km/h (3 Bft) 89,36 %
06.06.2017 12:36 15,6 C 20,0 C 15,6 C 83 % 0 lf 999,1 hPa 0,0 l/m 0 min 0 min 362 W/m 23,0 km/h (4 Bft) 91,49 %
06.06.2017 12:38 15,7 C 18,9 C 16,1 C 82 % 0 lf 999,1 hPa 0,0 l/m 2 min 0 min 446 W/m 25,1 km/h (4 Bft) 91,30 %
06.06.2017 12:40 15,7 C 18,3 C 16,1 C 82 % 0 lf 999,0 hPa 0,0 l/m 0 min 0 min 293 W/m 29,3 km/h (5 Bft) 93,62 %
06.06.2017 12:42 15,7 C 17,2 C 15,0 C 80 % 0 lf 999,1 hPa 0,0 l/m 0 min 0 min 190 W/m 29,3 km/h (5 Bft) 91,49 %
06.06.2017 12:44 15,7 C 16,7 C 14,4 C 80 % 0 lf 999,0 hPa 0,0 l/m 0 min 0 min 141 W/m 27,2 km/h (4 Bft) 93,62 %
06.06.2017 12:46 15,7 C 16,7 C 14,4 C 80 % 0 lf 999,1 hPa 0,0 l/m 0 min 0 min 137 W/m 20,9 km/h (4 Bft) 89,36 %
06.06.2017 12:48 15,7 C 17,2 C 15,0 C 80 % 0 lf 999,1 hPa 0,0 l/m 0 min 0 min 246 W/m 31,4 km/h (5 Bft) 93,62 %
06.06.2017 12:50 15,7 C 19,4 C 15,6 C 81 % 0 lf 999,2 hPa 0,0 l/m 0 min 0 min 340 W/m 23,0 km/h (4 Bft) 91,30 %
06.06.2017 12:52 15,8 C 21,1 C 16,7 C 81 % 0 lf 999,2 hPa 0,0 l/m 0 min 0 min 377 W/m 35,6 km/h (5 Bft) 85,11 %
06.06.2017 12:54 15,9 C 20,6 C 16,7 C 79 % 0 lf 999,2 hPa 0,0 l/m 2 min 0 min 998 W/m 46,0 km/h (6 Bft) 93,62 %
06.06.2017 12:56 16,0 C 20,6 C 17,2 C 78 % 0 lf 999,1 hPa 0,0 l/m 2 min 0 min 600 W/m 31,4 km/h (5 Bft) 93,62 %
06.06.2017 12:58 16,1 C 20,0 C 17,8 C 78 % 0 lf 999,2 hPa 0,0 l/m 0 min 0 min 404 W/m 43,9 km/h (6 Bft) 93,62 %
06.06.2017 13:00 16,2 C 20,0 C 17,8 C 76 % 0 lf 999,2 hPa 0,0 l/m 0 min 0 min 378 W/m 29,3 km/h (5 Bft) 91,49 %
06.06.2017 13:02 16,3 C 19,4 C 18,9 C 75 % 0 lf 999,1 hPa 0,0 l/m 0 min 0 min 378 W/m 31,4 km/h (5 Bft) 91,30 %
06.06.2017 13:04 16,4 C 18,9 C 17,8 C 75 % 0 lf 999,1 hPa 0,0 l/m 0 min 0 min 342 W/m 31,4 km/h (5 Bft) 91,49 %
06.06.2017 13:06 16,5 C 20,6 C 18,3 C 76 % 0 lf 999,2 hPa 0,0 l/m 0 min 0 min 362 W/m 35,6 km/h (5 Bft) 93,62 %
06.06.2017 13:08 16,6 C 22,8 C 20,0 C 75 % 0 lf 999,1 hPa 0,0 l/m 2 min 0 min 606 W/m 31,4 km/h (5 Bft) 93,62 %
06.06.2017 13:10 16,8 C 22,8 C 19,4 C 76 % 0 lf 999,1 hPa 0,0 l/m 2 min 0 min 927 W/m 31,4 km/h (5 Bft) 97,87 %
06.06.2017 13:12 16,9 C 21,1 C 18,3 C 75 % 0 lf 999,2 hPa 0,0 l/m 0 min 0 min 329 W/m 37,7 km/h (5 Bft) 93,62 %
06.06.2017 13:14 16,9 C 21,1 C 18,9 C 74 % 0 lf 999,2 hPa 0,0 l/m 0 min 0 min 390 W/m 27,2 km/h (4 Bft) 100,00 %
06.06.2017 13:16 16,9 C 20,6 C 18,3 C 72 % 0 lf 999,5 hPa 0,0 l/m 2 min 0 min 425 W/m 41,8 km/h (6 Bft) 97,87 %
06.06.2017 13:18 17,0 C 20,0 C 18,3 C 71 % 0 lf 999,3 hPa 0,0 l/m 2 min 0 min 427 W/m 50,2 km/h (7 Bft) 93,62 %
06.06.2017 13:20 17,0 C 20,6 C 18,3 C 71 % 0 lf 999,5 hPa 0,0 l/m 2 min 0 min 462 W/m 52,3 km/h (7 Bft) 97,87 %
06.06.2017 13:22 17,1 C 21,7 C 18,9 C 71 % 0 lf 999,3 hPa 0,0 l/m 2 min 0 min 519 W/m 50,2 km/h (7 Bft) 97,83 %
06.06.2017 13:24 17,2 C 22,2 C 18,9 C 70 % 0 lf 999,4 hPa 0,0 l/m 0 min 0 min 406 W/m 35,6 km/h (5 Bft) 97,87 %
06.06.2017 13:26 17,4 C 23,3 C 19,4 C 70 % 0 lf 999,4 hPa 0,0 l/m 2 min 0 min 890 W/m 35,6 km/h (5 Bft) 95,65 %
06.06.2017 13:28 17,5 C 24,4 C 19,4 C 71 % 0 lf 999,4 hPa 0,0 l/m 2 min 0 min 999 W/m 31,4 km/h (5 Bft) 95,74 %
06.06.2017 13:30 17,7 C 23,3 C 18,9 C 69 % 0 lf 999,4 hPa 0,0 l/m 2 min 0 min 987 W/m 54,4 km/h (7 Bft) 95,74 %
06.06.2017 13:32 17,8 C 23,3 C 18,9 C 68 % 0 lf 999,3 hPa 0,0 l/m 2 min 0 min 951 W/m 46,0 km/h (6 Bft) 95,74 %
06.06.2017 13:34 17,8 C 22,8 C 18,9 C 67 % 0 lf 999,4 hPa 0,0 l/m 2 min 0 min 1032 W/m 41,8 km/h (6 Bft) 97,87 %
06.06.2017 13:36 17,9 C 23,3 C 19,4 C 67 % 0 lf 999,4 hPa 0,0 l/m 2 min 0 min 1056 W/m 35,6 km/h (5 Bft) 95,74 %
06.06.2017 13:38 18,0 C 22,8 C 19,4 C 65 % 0 lf 999,6 hPa 0,0 l/m 2 min 0 min 1056 W/m 37,7 km/h (5 Bft) 95,65 %
06.06.2017 13:40 18,0 C 21,1 C 19,4 C 65 % 0 lf 999,4 hPa 0,0 l/m 2 min 0 min 646 W/m 31,4 km/h (5 Bft) 97,87 %
06.06.2017 13:42 18,0 C 22,2 C 19,4 C 65 % 0 lf 999,5 hPa 0,0 l/m 0 min 0 min 299 W/m 56,5 km/h (7 Bft) 97,87 %
06.06.2017 13:44 18,1 C 22,8 C 20,0 C 65 % 0 lf 999,5 hPa 0,0 l/m 0 min 0 min 299 W/m 41,8 km/h (6 Bft) 100,00 %
06.06.2017 13:46 18,1 C 22,2 C 20,6 C 66 % 0 lf 999,5 hPa 0,0 l/m 2 min 0 min 460 W/m 37,7 km/h (5 Bft) 97,87 %
06.06.2017 13:48 18,2 C 21,1 C 20,0 C 66 % 0 lf 999,4 hPa 0,0 l/m 0 min 0 min 415 W/m 33,5 km/h (5 Bft) 97,83 %
06.06.2017 13:50 18,2 C 20,0 C 19,4 C 66 % 0 lf 999,7 hPa 0,0 l/m 0 min 0 min 320 W/m 41,8 km/h (6 Bft) 100,00 %
06.06.2017 13:52 18,1 C 20,0 C 19,4 C 65 % 0 lf 999,4 hPa 0,0 l/m 0 min 0 min 375 W/m 37,7 km/h (5 Bft) 100,00 %
06.06.2017 13:54 18,1 C 20,0 C 18,9 C 66 % 0 lf 999,5 hPa 0,0 l/m 0 min 0 min 406 W/m 48,1 km/h (6 Bft) 100,00 %
06.06.2017 13:56 17,9 C 19,4 C 18,3 C 64 % 0 lf 999,5 hPa 0,0 l/m 0 min 0 min 294 W/m 41,8 km/h (6 Bft) 96,23 %
06.06.2017 13:58 17,9 C 19,4 C 18,9 C 64 % 0 lf 999,4 hPa 0,0 l/m 0 min 0 min 349 W/m 43,9 km/h (6 Bft) 100,00 %
06.06.2017 14:00 17,8 C 19,4 C 18,3 C 65 % 0 lf 999,8 hPa 0,0 l/m 0 min 0 min 311 W/m 41,8 km/h (6 Bft) 100,00 %
06.06.2017 14:02 17,7 C 19,4 C 18,3 C 65 % 0 lf 999,5 hPa 0,0 l/m 0 min 0 min 286 W/m 46,0 km/h (6 Bft) 100,00 %
06.06.2017 14:04 17,7 C 19,4 C 18,3 C 65 % 0 lf 999,7 hPa 0,0 l/m 0 min 0 min 318 W/m 37,7 km/h (5 Bft) 100,00 %
06.06.2017 14:06 17,6 C 19,4 C 18,9 C 65 % 0 lf 999,8 hPa 0,0 l/m 0 min 0 min 420 W/m 48,1 km/h (6 Bft) 100,00 %
06.06.2017 14:08 17,6 C 19,4 C 19,4 C 65 % 0 lf 999,7 hPa 0,0 l/m 2 min 0 min 447 W/m 46,0 km/h (6 Bft) 97,87 %
06.06.2017 14:10 17,6 C 19,4 C 18,9 C 65 % 0 lf 999,7 hPa 0,0 l/m 0 min 0 min 399 W/m 52,3 km/h (7 Bft) 95,74 %
06.06.2017 14:12 17,5 C 18,9 C 18,9 C 64 % 0 lf 999,8 hPa 0,0 l/m 0 min 0 min 372 W/m 43,9 km/h (6 Bft) 97,83 %
06.06.2017 14:14 17,5 C 19,4 C 18,9 C 64 % 0 lf 999,8 hPa 0,0 l/m 0 min 0 min 389 W/m 50,2 km/h (7 Bft) 100,00 %
06.06.2017 14:16 17,4 C 19,4 C 18,9 C 65 % 0 lf 999,7 hPa 0,0 l/m 0 min 0 min 384 W/m 41,8 km/h (6 Bft) 100,00 %
06.06.2017 14:18 17,4 C 19,4 C 18,9 C 65 % 0 lf 999,8 hPa 0,0 l/m 0 min 0 min 374 W/m 43,9 km/h (6 Bft) 97,87 %
06.06.2017 14:20 17,4 C 19,4 C 18,9 C 65 % 0 lf 999,8 hPa 0,0 l/m 0 min 0 min 310 W/m 31,4 km/h (5 Bft) 97,87 %
06.06.2017 14:22 17,4 C 18,9 C 17,8 C 65 % 0 lf 999,8 hPa 0,0 l/m 0 min 0 min 203 W/m 41,8 km/h (6 Bft) 100,00 %
06.06.2017 14:24 17,4 C 18,3 C 17,2 C 65 % 0 lf 999,8 hPa 0,0 l/m 0 min 0 min 158 W/m 33,5 km/h (5 Bft) 100,00 %
06.06.2017 14:26 17,3 C 18,3 C 17,2 C 65 % 0 lf 999,8 hPa 0,0 l/m 0 min 0 min 219 W/m 46,0 km/h (6 Bft) 97,87 %
06.06.2017 14:28 17,2 C 18,9 C 17,2 C 65 % 0 lf 999,8 hPa 0,0 l/m 0 min 0 min 260 W/m 37,7 km/h (5 Bft) 100,00 %
06.06.2017 14:30 17,2 C 18,9 C 17,8 C 65 % 0 lf 1000,0 hPa 0,0 l/m 0 min 0 min 312 W/m 39,7 km/h (6 Bft) 100,00 %
06.06.2017 14:32 17,2 C 19,4 C 18,3 C 64 % 0 lf 999,8 hPa 0,0 l/m 0 min 0 min 404 W/m 46,0 km/h (6 Bft) 97,87 %
06.06.2017 14:34 17,2 C 20,6 C 20,6 C 65 % 0 lf 999,8 hPa 0,0 l/m 2 min 0 min 443 W/m 31,4 km/h (5 Bft) 100,00 %
06.06.2017 14:36 17,3 C 20,6 C 20,0 C 66 % 0 lf 999,8 hPa 0,0 l/m 0 min 0 min 347 W/m 31,4 km/h (5 Bft) 97,67 %
06.06.2017 14:38 17,4 C 20,6 C 20,0 C 66 % 0 lf 999,8 hPa 0,0 l/m 0 min 0 min 351 W/m 31,4 km/h (5 Bft) 100,00 %
06.06.2017 14:40 17,5 C 20,6 C 20,0 C 65 % 0 lf 1000,0 hPa 0,0 l/m 0 min 0 min 401 W/m 39,7 km/h (6 Bft) 100,00 %
06.06.2017 14:42 17,6 C 21,1 C 21,7 C 64 % 0 lf 999,8 hPa 0,0 l/m 2 min 0 min 418 W/m 52,3 km/h (7 Bft) 100,00 %
06.06.2017 14:44 17,7 C 21,1 C 21,1 C 64 % 0 lf 999,9 hPa 0,0 l/m 0 min 0 min 410 W/m 33,5 km/h (5 Bft) 97,87 %
06.06.2017 14:46 17,7 C 20,6 C 20,0 C 63 % 0 lf 999,8 hPa 0,0 l/m 0 min 0 min 333 W/m 35,6 km/h (5 Bft) 100,00 %
06.06.2017 14:48 17,8 C 20,0 C 19,4 C 63 % 0 lf 999,8 hPa 0,0 l/m 0 min 0 min 320 W/m 31,4 km/h (5 Bft) 100,00 %
06.06.2017 14:50 17,8 C 19,4 C 18,9 C 64 % 0 lf 999,7 hPa 0,0 l/m 0 min 0 min 240 W/m 35,6 km/h (5 Bft) 97,83 %
06.06.2017 14:52 17,7 C 18,9 C 18,3 C 64 % 0 lf 999,8 hPa 0,0 l/m 0 min 0 min 131 W/m 35,6 km/h (5 Bft) 97,87 %
06.06.2017 14:54 17,6 C 17,8 C 17,2 C 63 % 0 lf 999,8 hPa 0,0 l/m 0 min 0 min 98 W/m 35,6 km/h (5 Bft) 100,00 %
06.06.2017 14:56 17,5 C 17,8 C 16,7 C 63 % 1 lf 999,7 hPa 0,0 l/m 0 min 2 min 135 W/m 39,7 km/h (6 Bft) 95,74 %
06.06.2017 14:58 17,4 C 18,9 C 18,3 C 64 % 0 lf 999,9 hPa 0,0 l/m 0 min 0 min 199 W/m 39,7 km/h (6 Bft) 97,87 %
06.06.2017 15:00 17,4 C 20,0 C 20,0 C 65 % 0 lf 999,9 hPa 0,0 l/m 0 min 0 min 199 W/m 33,5 km/h (5 Bft) 97,87 %
06.06.2017 15:02 17,4 C 20,6 C 20,0 C 65 % 0 lf 999,8 hPa 0,0 l/m 0 min 0 min 199 W/m 33,5 km/h (5 Bft) 91,30 %
06.06.2017 15:04 17,5 C 19,4 C 18,9 C 64 % 0 lf 999,9 hPa 0,0 l/m 0 min 0 min 196 W/m 35,6 km/h (5 Bft) 97,87 %
06.06.2017 15:06 17,5 C 18,9 C 17,8 C 64 % 0 lf 999,9 hPa 0,0 l/m 0 min 0 min 137 W/m 33,5 km/h (5 Bft) 95,74 %
06.06.2017 15:08 17,4 C 18,3 C 17,2 C 65 % 0 lf 999,9 hPa 0,0 l/m 0 min 0 min 129 W/m 25,1 km/h (4 Bft) 93,62 %
06.06.2017 15:10 17,4 C 18,9 C 19,4 C 65 % 0 lf 1000,1 hPa 0,0 l/m 0 min 0 min 216 W/m 48,1 km/h (6 Bft) 91,49 %
06.06.2017 15:12 17,4 C 21,1 C 22,8 C 67 % 0 lf 1000,1 hPa 0,0 l/m 2 min 0 min 825 W/m 39,7 km/h (6 Bft) 95,74 %
06.06.2017 15:14 17,6 C 22,2 C 24,4 C 68 % 0 lf 1000,1 hPa 0,0 l/m 2 min 0 min 876 W/m 23,0 km/h (4 Bft) 93,48 %
06.06.2017 15:16 17,8 C 22,8 C 25,6 C 70 % 0 lf 1000,2 hPa 0,0 l/m 2 min 0 min 836 W/m 31,4 km/h (5 Bft) 95,74 %
06.06.2017 15:18 17,9 C 23,9 C 26,7 C 70 % 0 lf 1000,1 hPa 0,0 l/m 2 min 0 min 818 W/m 35,6 km/h (5 Bft) 93,62 %
06.06.2017 15:20 18,1 C 23,9 C 27,2 C 69 % 0 lf 1000,0 hPa 0,0 l/m 2 min 0 min 810 W/m 23,0 km/h (4 Bft) 95,74 %
06.06.2017 15:22 18,2 C 23,3 C 26,7 C 67 % 0 lf 1000,0 hPa 0,0 l/m 2 min 0 min 807 W/m 31,4 km/h (5 Bft) 93,62 %
06.06.2017 15:24 18,4 C 23,9 C 27,2 C 67 % 0 lf 1000,1 hPa 0,0 l/m 2 min 0 min 812 W/m 20,9 km/h (4 Bft) 93,62 %
06.06.2017 15:26 18,5 C 22,8 C 25,6 C 66 % 0 lf 1000,0 hPa 0,0 l/m 2 min 0 min 821 W/m 39,7 km/h (6 Bft) 91,30 %
06.06.2017 15:28 18,6 C 21,7 C 23,9 C 65 % 0 lf 1000,1 hPa 0,0 l/m 2 min 0 min 458 W/m 41,8 km/h (6 Bft) 89,36 %
06.06.2017 15:30 18,5 C 20,6 C 21,7 C 64 % 0 lf 1000,1 hPa 0,0 l/m 0 min 0 min 337 W/m 41,8 km/h (6 Bft) 87,23 %
06.06.2017 15:32 18,4 C 19,4 C 20,0 C 63 % 0 lf 1000,1 hPa 0,0 l/m 0 min 0 min 118 W/m 39,7 km/h (6 Bft) 90,00 %
06.06.2017 15:34 18,3 C 17,8 C 16,7 C 66 % 15 lf 1000,3 hPa 0,0 l/m 0 min 0 min 127 W/m 33,5 km/h (5 Bft) 91,49 %
06.06.2017 15:36 18,2 C 16,7 C 14,4 C 68 % 15 lf 1000,3 hPa 0,2 l/m 0 min 2 min 200 W/m 39,7 km/h (6 Bft) 91,30 %
06.06.2017 15:38 18,0 C 17,8 C 15,6 C 67 % 15 lf 1000,5 hPa 0,0 l/m 0 min 2 min 319 W/m 46,0 km/h (6 Bft) 91,67 %
06.06.2017 15:40 17,8 C 18,9 C 15,6 C 66 % 14 lf 1000,4 hPa 0,0 l/m 2 min 0 min 786 W/m 43,9 km/h (6 Bft) 87,23 %
06.06.2017 15:42 17,6 C 19,4 C 17,8 C 64 % 0 lf 1000,5 hPa 0,0 l/m 0 min 0 min 356 W/m 54,4 km/h (7 Bft) 87,23 %
06.06.2017 15:44 17,6 C 20,6 C 21,7 C 65 % 0 lf 1000,6 hPa 0,0 l/m 2 min 0 min 633 W/m 43,9 km/h (6 Bft) 89,36 %
06.06.2017 15:46 17,5 C 20,6 C 22,8 C 64 % 0 lf 1000,6 hPa 0,0 l/m 2 min 0 min 822 W/m 46,0 km/h (6 Bft) 95,65 %
06.06.2017 15:48 17,6 C 21,1 C 23,3 C 65 % 0 lf 1000,4 hPa 0,0 l/m 2 min 0 min 824 W/m 43,9 km/h (6 Bft) 93,62 %
06.06.2017 15:50 17,6 C 20,6 C 23,3 C 63 % 0 lf 1000,5 hPa 0,0 l/m 2 min 0 min 817 W/m 58,6 km/h (7 Bft) 93,62 %
06.06.2017 15:52 17,7 C 20,6 C 23,9 C 60 % 0 lf 1000,9 hPa 0,0 l/m 2 min 0 min 789 W/m 46,0 km/h (6 Bft) 93,62 %
06.06.2017 15:54 17,7 C 21,1 C 24,4 C 59 % 0 lf 1000,6 hPa 0,0 l/m 2 min 0 min 767 W/m 50,2 km/h (7 Bft) 95,74 %
06.06.2017 15:56 17,7 C 20,6 C 24,4 C 59 % 0 lf 1000,5 hPa 0,0 l/m 2 min 0 min 765 W/m 66,9 km/h (8 Bft) 95,74 %
06.06.2017 15:58 17,8 C 20,6 C 24,4 C 59 % 0 lf 1000,5 hPa 0,0 l/m 2 min 0 min 760 W/m 50,2 km/h (7 Bft) 93,48 %
06.06.2017 16:00 17,8 C 21,1 C 25,0 C 59 % 0 lf 1000,5 hPa 0,0 l/m 2 min 0 min 759 W/m 54,4 km/h (7 Bft) 89,36 %
06.06.2017 16:02 17,9 C 20,6 C 24,4 C 59 % 0 lf 1000,5 hPa 0,0 l/m 2 min 0 min 676 W/m 48,1 km/h (6 Bft) 91,67 %
06.06.2017 16:04 17,9 C 20,0 C 22,2 C 60 % 0 lf 1000,5 hPa 0,0 l/m 0 min 0 min 351 W/m 33,5 km/h (5 Bft) 95,74 %
06.06.2017 16:06 17,9 C 18,9 C 20,0 C 59 % 0 lf 1000,5 hPa 0,0 l/m 0 min 0 min 297 W/m 43,9 km/h (6 Bft) 93,62 %
06.06.2017 16:08 17,9 C 19,4 C 20,6 C 60 % 0 lf 1000,6 hPa 0,0 l/m 0 min 0 min 347 W/m 29,3 km/h (5 Bft) 95,83 %
06.06.2017 16:10 17,9 C 20,6 C 22,8 C 61 % 0 lf 1000,6 hPa 0,0 l/m 2 min 0 min 369 W/m 31,4 km/h (5 Bft) 95,65 %
06.06.2017 16:12 18,0 C 20,6 C 23,3 C 61 % 0 lf 1000,7 hPa 0,0 l/m 2 min 0 min 624 W/m 43,9 km/h (6 Bft) 93,62 %
06.06.2017 16:14 18,0 C 20,0 C 22,2 C 60 % 0 lf 1000,7 hPa 0,0 l/m 2 min 0 min 858 W/m 50,2 km/h (7 Bft) 97,87 %
06.06.2017 16:16 18,0 C 19,4 C 21,1 C 61 % 0 lf 1000,8 hPa 0,0 l/m 2 min 0 min 425 W/m 54,4 km/h (7 Bft) 95,74 %
06.06.2017 16:18 17,9 C 19,4 C 22,2 C 61 % 0 lf 1000,9 hPa 0,0 l/m 0 min 0 min 338 W/m 52,3 km/h (7 Bft) 95,74 %
06.06.2017 16:20 17,9 C 19,4 C 23,3 C 62 % 0 lf 1000,8 hPa 0,0 l/m 2 min 0 min 790 W/m 50,2 km/h (7 Bft) 100,00 %
06.06.2017 16:22 18,0 C 19,4 C 24,4 C 62 % 0 lf 1000,8 hPa 0,0 l/m 2 min 0 min 774 W/m 29,3 km/h (5 Bft) 93,62 %
06.06.2017 16:24 18,1 C 19,4 C 24,4 C 62 % 0 lf 1000,7 hPa 0,0 l/m 2 min 0 min 789 W/m 39,7 km/h (6 Bft) 97,83 %
06.06.2017 16:26 18,1 C 19,4 C 25,0 C 61 % 0 lf 1000,8 hPa 0,0 l/m 2 min 0 min 624 W/m 35,6 km/h (5 Bft) 95,74 %
06.06.2017 16:28 18,2 C 19,4 C 25,0 C 61 % 0 lf 1000,9 hPa 0,0 l/m 2 min 0 min 622 W/m 50,2 km/h (7 Bft) 100,00 %
06.06.2017 16:30 18,2 C 19,4 C 25,0 C 61 % 0 lf 1000,9 hPa 0,0 l/m 2 min 0 min 802 W/m 58,6 km/h (7 Bft) 100,00 %
06.06.2017 16:32 18,3 C 19,4 C 25,0 C 60 % 0 lf 1000,9 hPa 0,0 l/m 2 min 0 min 801 W/m 46,0 km/h (6 Bft) 97,87 %
06.06.2017 16:34 18,3 C 19,4 C 25,6 C 59 % 0 lf 1001,2 hPa 0,0 l/m 2 min 0 min 778 W/m 46,0 km/h (6 Bft) 100,00 %
06.06.2017 16:36 18,4 C 20,0 C 25,6 C 58 % 0 lf 1001,0 hPa 0,0 l/m 2 min 0 min 747 W/m 52,3 km/h (7 Bft) 95,74 %
06.06.2017 16:38 18,5 C 20,0 C 26,1 C 58 % 0 lf 1000,9 hPa 0,0 l/m 2 min 0 min 717 W/m 33,5 km/h (5 Bft) 100,00 %
06.06.2017 16:40 18,5 C 19,4 C 23,9 C 57 % 0 lf 1001,4 hPa 0,0 l/m 2 min 0 min 680 W/m 37,7 km/h (5 Bft) 100,00 %
06.06.2017 16:42 18,5 C 18,9 C 22,2 C 56 % 0 lf 1001,3 hPa 0,0 l/m 2 min 0 min 635 W/m 52,3 km/h (7 Bft) 100,00 %
06.06.2017 16:44 18,3 C 18,3 C 20,0 C 55 % 0 lf 1001,1 hPa 0,0 l/m 2 min 0 min 635 W/m 43,9 km/h (6 Bft) 100,00 %
06.06.2017 16:46 18,1 C 17,8 C 18,9 C 56 % 0 lf 1001,3 hPa 0,0 l/m 0 min 0 min 308 W/m 41,8 km/h (6 Bft) 97,83 %
06.06.2017 16:48 17,9 C 17,8 C 18,3 C 57 % 0 lf 1001,2 hPa 0,0 l/m 0 min 0 min 269 W/m 35,6 km/h (5 Bft) 100,00 %
06.06.2017 16:50 17,7 C 17,8 C 17,8 C 56 % 0 lf 1001,3 hPa 0,0 l/m 0 min 0 min 265 W/m 35,6 km/h (5 Bft) 97,87 %
06.06.2017 16:52 17,5 C 17,2 C 17,8 C 56 % 0 lf 1001,3 hPa 0,0 l/m 0 min 0 min 304 W/m 48,1 km/h (6 Bft) 97,87 %
06.06.2017 16:54 17,3 C 17,8 C 18,3 C 58 % 0 lf 1001,5 hPa 0,0 l/m 2 min 0 min 437 W/m 31,4 km/h (5 Bft) 100,00 %
06.06.2017 16:56 17,3 C 18,3 C 18,9 C 58 % 0 lf 1001,4 hPa 0,0 l/m 2 min 0 min 526 W/m 41,8 km/h (6 Bft) 100,00 %
06.06.2017 16:58 17,3 C 18,3 C 18,9 C 59 % 0 lf 1001,4 hPa 0,0 l/m 2 min 0 min 526 W/m 46,0 km/h (6 Bft) 97,83 %
06.06.2017 17:00 17,3 C 18,3 C 18,3 C 58 % 0 lf 1001,5 hPa 0,0 l/m 2 min 0 min 526 W/m 46,0 km/h (6 Bft) 100,00 %
06.06.2017 17:02 17,3 C 18,3 C 18,3 C 59 % 0 lf 1001,3 hPa 0,0 l/m 2 min 0 min 629 W/m 33,5 km/h (5 Bft) 100,00 %
06.06.2017 17:04 17,3 C 18,3 C 18,3 C 59 % 0 lf 1001,3 hPa 0,0 l/m 2 min 0 min 642 W/m 37,7 km/h (5 Bft) 97,87 %
06.06.2017 17:06 17,4 C 18,3 C 18,3 C 59 % 0 lf 1001,3 hPa 0,0 l/m 2 min 0 min 628 W/m 35,6 km/h (5 Bft) 97,87 %
06.06.2017 17:08 17,5 C 18,9 C 18,3 C 60 % 0 lf 1001,2 hPa 0,0 l/m 2 min 0 min 617 W/m 31,4 km/h (5 Bft) 95,65 %
06.06.2017 17:10 17,6 C 18,9 C 18,3 C 60 % 0 lf 1001,3 hPa 0,0 l/m 2 min 0 min 613 W/m 33,5 km/h (5 Bft) 100,00 %
06.06.2017 17:12 17,7 C 18,3 C 18,3 C 60 % 0 lf 1001,3 hPa 0,0 l/m 2 min 0 min 572 W/m 50,2 km/h (7 Bft) 95,74 %
06.06.2017 17:14 17,7 C 18,3 C 17,8 C 60 % 0 lf 1001,3 hPa 0,0 l/m 2 min 0 min 387 W/m 41,8 km/h (6 Bft) 100,00 %
06.06.2017 17:16 17,7 C 18,3 C 18,3 C 60 % 0 lf 1001,6 hPa 0,0 l/m 2 min 0 min 532 W/m 52,3 km/h (7 Bft) 94,29 %
06.06.2017 17:18 17,7 C 18,3 C 18,3 C 61 % 0 lf 1001,4 hPa 0,0 l/m 2 min 0 min 671 W/m 37,7 km/h (5 Bft) 100,00 %
06.06.2017 17:20 17,8 C 18,9 C 18,3 C 61 % 0 lf 1001,4 hPa 0,0 l/m 2 min 0 min 658 W/m 27,2 km/h (4 Bft) 100,00 %
06.06.2017 17:22 17,8 C 18,3 C 18,3 C 61 % 0 lf 1001,4 hPa 0,0 l/m 2 min 0 min 633 W/m 39,7 km/h (6 Bft) 100,00 %
06.06.2017 17:24 17,8 C 18,3 C 17,8 C 61 % 0 lf 1001,4 hPa 0,0 l/m 2 min 0 min 595 W/m 37,7 km/h (5 Bft) 97,87 %
06.06.2017 17:26 17,8 C 18,3 C 17,8 C 61 % 0 lf 1001,4 hPa 0,0 l/m 2 min 0 min 569 W/m 35,6 km/h (5 Bft) 98,11 %
06.06.2017 17:28 17,8 C 18,3 C 17,8 C 62 % 0 lf 1001,5 hPa 0,0 l/m 2 min 0 min 602 W/m 41,8 km/h (6 Bft) 95,74 %
06.06.2017 17:30 17,7 C 17,8 C 17,8 C 61 % 0 lf 1001,4 hPa 0,0 l/m 2 min 0 min 317 W/m 31,4 km/h (5 Bft) 91,49 %
06.06.2017 17:32 17,7 C 18,3 C 17,8 C 62 % 0 lf 1001,3 hPa 0,0 l/m 2 min 0 min 334 W/m 52,3 km/h (7 Bft) 95,74 %
06.06.2017 17:34 17,7 C 18,3 C 17,8 C 62 % 0 lf 1001,4 hPa 0,0 l/m 2 min 0 min 582 W/m 33,5 km/h (5 Bft) 93,62 %
06.06.2017 17:36 17,7 C 18,9 C 17,8 C 62 % 0 lf 1001,3 hPa 0,0 l/m 2 min 0 min 586 W/m 37,7 km/h (5 Bft) 96,08 %
06.06.2017 17:38 17,8 C 18,9 C 17,8 C 63 % 0 lf 1001,5 hPa 0,0 l/m 2 min 0 min 592 W/m 27,2 km/h (4 Bft) 95,74 %
06.06.2017 17:40 17,8 C 18,9 C 17,8 C 63 % 0 lf 1001,4 hPa 0,0 l/m 2 min 0 min 548 W/m 43,9 km/h (6 Bft) 93,62 %
06.06.2017 17:42 17,8 C 18,3 C 17,2 C 62 % 0 lf 1001,6 hPa 0,0 l/m 0 min 0 min 130 W/m 41,8 km/h (6 Bft) 93,62 %
06.06.2017 17:44 17,7 C 17,8 C 16,7 C 61 % 0 lf 1001,7 hPa 0,0 l/m 0 min 0 min 161 W/m 56,5 km/h (7 Bft) 95,74 %
06.06.2017 17:46 17,6 C 16,7 C 15,0 C 63 % 15 lf 1001,7 hPa 0,0 l/m 0 min 2 min 220 W/m 52,3 km/h (7 Bft) 91,49 %
06.06.2017 17:48 17,4 C 16,1 C 14,4 C 64 % 15 lf 1001,7 hPa 0,0 l/m 2 min 2 min 281 W/m 33,5 km/h (5 Bft) 93,62 %
06.06.2017 17:50 17,2 C 16,1 C 15,0 C 65 % 13 lf 1001,7 hPa 0,0 l/m 2 min 2 min 471 W/m 39,7 km/h (6 Bft) 95,74 %
06.06.2017 17:52 17,0 C 16,7 C 15,0 C 66 % 0 lf 1001,8 hPa 0,0 l/m 2 min 0 min 627 W/m 33,5 km/h (5 Bft) 93,62 %
06.06.2017 17:54 16,9 C 17,2 C 15,6 C 65 % 0 lf 1001,8 hPa 0,0 l/m 2 min 0 min 584 W/m 33,5 km/h (5 Bft) 95,65 %
06.06.2017 17:56 16,8 C 17,2 C 15,0 C 65 % 0 lf 1001,7 hPa 0,0 l/m 2 min 0 min 263 W/m 27,2 km/h (4 Bft) 95,74 %
06.06.2017 17:58 16,7 C 17,2 C 15,6 C 65 % 0 lf 1001,7 hPa 0,0 l/m 2 min 0 min 309 W/m 33,5 km/h (5 Bft) 93,62 %
06.06.2017 18:00 16,6 C 17,2 C 15,6 C 65 % 0 lf 1001,7 hPa 0,0 l/m 2 min 0 min 335 W/m 37,7 km/h (5 Bft) 95,74 %
06.06.2017 18:02 16,6 C 16,7 C 15,6 C 64 % 0 lf 1001,9 hPa 0,0 l/m 0 min 0 min 241 W/m 39,7 km/h (6 Bft) 95,74 %
06.06.2017 18:04 16,5 C 17,2 C 16,1 C 65 % 0 lf 1001,8 hPa 0,0 l/m 0 min 0 min 215 W/m 23,0 km/h (4 Bft) 97,87 %
06.06.2017 18:06 16,4 C 16,7 C 16,1 C 65 % 0 lf 1002,0 hPa 0,0 l/m 0 min 0 min 138 W/m 27,2 km/h (4 Bft) 97,83 %
06.06.2017 18:08 16,4 C 16,7 C 15,6 C 65 % 0 lf 1001,9 hPa 0,0 l/m 0 min 0 min 125 W/m 27,2 km/h (4 Bft) 97,87 %
06.06.2017 18:10 16,4 C 17,2 C 16,1 C 65 % 0 lf 1002,0 hPa 0,0 l/m 0 min 0 min 213 W/m 35,6 km/h (5 Bft) 100,00 %
06.06.2017 18:12 16,4 C 17,2 C 16,1 C 65 % 0 lf 1002,0 hPa 0,0 l/m 0 min 0 min 214 W/m 33,5 km/h (5 Bft) 100,00 %
06.06.2017 18:14 16,4 C 17,2 C 16,1 C 66 % 0 lf 1001,9 hPa 0,0 l/m 0 min 0 min 193 W/m 31,4 km/h (5 Bft) 93,62 %
06.06.2017 18:16 16,4 C 17,2 C 16,7 C 66 % 0 lf 1002,1 hPa 0,0 l/m 0 min 0 min 227 W/m 27,2 km/h (4 Bft) 93,62 %
06.06.2017 18:18 16,4 C 17,8 C 17,2 C 66 % 0 lf 1002,0 hPa 0,0 l/m 2 min 0 min 335 W/m 16,7 km/h (3 Bft) 100,00 %
06.06.2017 18:20 16,4 C 18,3 C 17,8 C 67 % 0 lf 1002,0 hPa 0,0 l/m 2 min 0 min 545 W/m 23,0 km/h (4 Bft) 97,87 %
06.06.2017 18:22 16,5 C 18,9 C 17,8 C 67 % 0 lf 1002,0 hPa 0,0 l/m 2 min 0 min 571 W/m 18,8 km/h (3 Bft) 93,62 %
06.06.2017 18:24 16,6 C 18,9 C 17,8 C 67 % 0 lf 1002,0 hPa 0,0 l/m 2 min 0 min 511 W/m 18,8 km/h (3 Bft) 100,00 %
06.06.2017 18:26 16,7 C 18,9 C 17,8 C 67 % 0 lf 1002,0 hPa 0,0 l/m 2 min 0 min 487 W/m 23,0 km/h (4 Bft) 95,74 %
06.06.2017 18:28 16,8 C 18,9 C 17,2 C 67 % 0 lf 1002,0 hPa 0,0 l/m 2 min 0 min 480 W/m 10,5 km/h (2 Bft) 100,00 %
06.06.2017 18:30 16,8 C 18,9 C 17,2 C 68 % 0 lf 1002,0 hPa 0,0 l/m 2 min 0 min 490 W/m 33,5 km/h (5 Bft) 95,65 %
06.06.2017 18:32 16,9 C 18,3 C 17,2 C 67 % 0 lf 1001,9 hPa 0,0 l/m 2 min 0 min 472 W/m 35,6 km/h (5 Bft) 93,62 %
06.06.2017 18:34 16,9 C 18,3 C 17,2 C 66 % 0 lf 1002,0 hPa 0,0 l/m 0 min 0 min 202 W/m 33,5 km/h (5 Bft) 97,87 %
06.06.2017 18:36 17,0 C 17,8 C 16,7 C 66 % 0 lf 1002,0 hPa 0,0 l/m 0 min 0 min 202 W/m 39,7 km/h (6 Bft) 100,00 %
06.06.2017 18:38 17,0 C 17,8 C 17,2 C 65 % 0 lf 1002,0 hPa 0,0 l/m 0 min 0 min 203 W/m 37,7 km/h (5 Bft) 95,74 %
06.06.2017 18:40 17,0 C 17,8 C 17,2 C 63 % 0 lf 1002,0 hPa 0,0 l/m 2 min 0 min 252 W/m 37,7 km/h (5 Bft) 95,74 %
06.06.2017 18:42 17,1 C 17,8 C 16,7 C 63 % 0 lf 1002,1 hPa 0,0 l/m 2 min 0 min 404 W/m 41,8 km/h (6 Bft) 97,87 %
06.06.2017 18:44 17,1 C 18,3 C 16,7 C 63 % 0 lf 1002,1 hPa 0,0 l/m 2 min 0 min 305 W/m 35,6 km/h (5 Bft) 93,62 %
06.06.2017 18:46 17,1 C 17,8 C 16,7 C 63 % 0 lf 1002,0 hPa 0,0 l/m 2 min 0 min 270 W/m 35,6 km/h (5 Bft) 93,48 %
06.06.2017 18:48 17,1 C 17,8 C 16,1 C 62 % 0 lf 1002,1 hPa 0,0 l/m 2 min 0 min 222 W/m 41,8 km/h (6 Bft) 93,62 %
06.06.2017 18:50 17,0 C 17,2 C 16,1 C 62 % 0 lf 1002,1 hPa 0,0 l/m 0 min 0 min 181 W/m 48,1 km/h (6 Bft) 91,67 %
06.06.2017 18:52 16,9 C 16,7 C 15,6 C 62 % 0 lf 1002,1 hPa 0,0 l/m 0 min 0 min 107 W/m 39,7 km/h (6 Bft) 97,87 %
06.06.2017 18:54 16,9 C 16,7 C 15,6 C 63 % 0 lf 1002,0 hPa 0,0 l/m 0 min 0 min 108 W/m 33,5 km/h (5 Bft) 95,74 %
06.06.2017 18:56 16,8 C 16,7 C 15,0 C 63 % 0 lf 1002,0 hPa 0,0 l/m 0 min 0 min 86 W/m 29,3 km/h (5 Bft) 93,48 %
06.06.2017 18:58 16,7 C 16,7 C 15,0 C 64 % 0 lf 1002,1 hPa 0,0 l/m 0 min 0 min 80 W/m 27,2 km/h (4 Bft) 93,62 %
06.06.2017 19:00 16,7 C 16,7 C 15,0 C 64 % 0 lf 1002,1 hPa 0,0 l/m 0 min 0 min 83 W/m 20,9 km/h (4 Bft) 93,62 %
06.06.2017 19:02 16,6 C 16,7 C 15,6 C 64 % 0 lf 1002,1 hPa 0,0 l/m 0 min 0 min 122 W/m 25,1 km/h (4 Bft) 95,24 %
06.06.2017 19:04 16,6 C 16,7 C 15,6 C 64 % 0 lf 1002,1 hPa 0,0 l/m 0 min 0 min 179 W/m 31,4 km/h (5 Bft) 95,74 %
06.06.2017 19:06 16,5 C 17,2 C 16,1 C 64 % 0 lf 1002,2 hPa 0,0 l/m 2 min 0 min 269 W/m 29,3 km/h (5 Bft) 93,48 %
06.06.2017 19:08 16,5 C 17,2 C 16,1 C 64 % 0 lf 1002,2 hPa 0,0 l/m 2 min 0 min 216 W/m 31,4 km/h (5 Bft) 94,34 %
06.06.2017 19:10 16,5 C 17,2 C 16,1 C 64 % 0 lf 1002,2 hPa 0,0 l/m 2 min 0 min 343 W/m 29,3 km/h (5 Bft) 93,62 %
06.06.2017 19:12 16,6 C 17,2 C 16,7 C 63 % 0 lf 1002,1 hPa 0,0 l/m 2 min 0 min 361 W/m 46,0 km/h (6 Bft) 95,74 %
06.06.2017 19:14 16,6 C 17,2 C 16,1 C 63 % 0 lf 1002,1 hPa 0,0 l/m 2 min 0 min 288 W/m 35,6 km/h (5 Bft) 95,74 %
06.06.2017 19:16 16,6 C 17,2 C 16,1 C 63 % 0 lf 1002,3 hPa 0,0 l/m 2 min 0 min 309 W/m 41,8 km/h (6 Bft) 95,74 %
06.06.2017 19:18 16,6 C 17,2 C 16,1 C 63 % 0 lf 1002,2 hPa 0,0 l/m 2 min 0 min 296 W/m 35,6 km/h (5 Bft) 93,62 %
06.06.2017 19:20 16,6 C 17,2 C 15,6 C 63 % 0 lf 1002,2 hPa 0,0 l/m 0 min 0 min 95 W/m 37,7 km/h (5 Bft) 91,30 %
06.06.2017 19:22 16,6 C 16,7 C 15,6 C 63 % 0 lf 1002,1 hPa 0,0 l/m 0 min 0 min 93 W/m 37,7 km/h (5 Bft) 91,49 %
06.06.2017 19:24 16,6 C 16,7 C 15,6 C 63 % 0 lf 1002,2 hPa 0,0 l/m 2 min 0 min 158 W/m 35,6 km/h (5 Bft) 93,62 %
06.06.2017 19:26 16,6 C 16,7 C 15,6 C 63 % 0 lf 1002,2 hPa 0,0 l/m 2 min 0 min 162 W/m 43,9 km/h (6 Bft) 95,83 %
06.06.2017 19:28 16,6 C 16,7 C 15,6 C 63 % 0 lf 1002,3 hPa 0,0 l/m 0 min 0 min 127 W/m 37,7 km/h (5 Bft) 97,87 %
06.06.2017 19:30 16,6 C 16,7 C 15,6 C 63 % 0 lf 1002,2 hPa 0,0 l/m 2 min 0 min 208 W/m 27,2 km/h (4 Bft) 97,92 %
06.06.2017 19:32 16,6 C 17,2 C 15,6 C 63 % 0 lf 1002,3 hPa 0,0 l/m 2 min 0 min 239 W/m 16,7 km/h (3 Bft) 95,65 %
06.06.2017 19:34 16,6 C 17,2 C 15,6 C 63 % 0 lf 1002,5 hPa 0,0 l/m 2 min 0 min 256 W/m 46,0 km/h (6 Bft) 93,62 %
06.06.2017 19:36 16,6 C 17,2 C 16,1 C 63 % 0 lf 1002,4 hPa 0,0 l/m 2 min 0 min 265 W/m 37,7 km/h (5 Bft) 93,62 %
06.06.2017 19:38 16,6 C 17,2 C 16,1 C 63 % 0 lf 1002,5 hPa 0,0 l/m 2 min 0 min 269 W/m 33,5 km/h (5 Bft) 97,87 %
06.06.2017 19:40 16,7 C 17,2 C 16,1 C 63 % 0 lf 1002,4 hPa 0,0 l/m 2 min 0 min 237 W/m 39,7 km/h (6 Bft) 95,74 %
06.06.2017 19:42 16,7 C 17,2 C 16,1 C 63 % 0 lf 1002,5 hPa 0,0 l/m 2 min 0 min 224 W/m 31,4 km/h (5 Bft) 97,83 %
06.06.2017 19:44 16,7 C 17,2 C 16,1 C 62 % 0 lf 1002,6 hPa 0,0 l/m 2 min 0 min 206 W/m 29,3 km/h (5 Bft) 95,74 %
06.06.2017 19:46 16,7 C 17,2 C 15,6 C 62 % 0 lf 1002,5 hPa 0,0 l/m 2 min 0 min 186 W/m 27,2 km/h (4 Bft) 97,87 %
06.06.2017 19:48 16,7 C 16,7 C 15,6 C 61 % 0 lf 1002,5 hPa 0,0 l/m 2 min 0 min 173 W/m 37,7 km/h (5 Bft) 97,92 %
06.06.2017 19:50 16,7 C 16,7 C 15,6 C 61 % 0 lf 1002,6 hPa 0,0 l/m 2 min 0 min 162 W/m 39,7 km/h (6 Bft) 95,74 %
06.06.2017 19:52 16,7 C 16,7 C 15,0 C 61 % 0 lf 1002,5 hPa 0,0 l/m 2 min 0 min 152 W/m 50,2 km/h (7 Bft) 97,87 %
06.06.2017 19:54 16,6 C 16,7 C 15,0 C 61 % 0 lf 1002,5 hPa 0,0 l/m 2 min 0 min 148 W/m 39,7 km/h (6 Bft) 95,65 %
06.06.2017 19:56 16,6 C 16,7 C 15,0 C 61 % 0 lf 1002,6 hPa 0,0 l/m 2 min 0 min 142 W/m 33,5 km/h (5 Bft) 97,87 %
06.06.2017 19:58 16,6 C 16,7 C 15,0 C 62 % 0 lf 1002,5 hPa 0,0 l/m 2 min 0 min 136 W/m 25,1 km/h (4 Bft) 97,87 %
06.06.2017 20:00 16,6 C 16,7 C 15,0 C 62 % 0 lf 1002,6 hPa 0,0 l/m 2 min 0 min 129 W/m 41,8 km/h (6 Bft) 95,74 %
06.06.2017 20:02 16,5 C 16,7 C 15,0 C 61 % 0 lf 1002,6 hPa 0,0 l/m 2 min 0 min 124 W/m 41,8 km/h (6 Bft) 91,49 %
06.06.2017 20:04 16,4 C 16,7 C 15,0 C 62 % 0 lf 1002,6 hPa 0,0 l/m 2 min 0 min 110 W/m 43,9 km/h (6 Bft) 97,87 %
06.06.2017 20:06 16,4 C 16,7 C 15,0 C 62 % 0 lf 1002,7 hPa 0,0 l/m 2 min 0 min 116 W/m 50,2 km/h (7 Bft) 89,13 %
06.06.2017 20:08 16,4 C 16,7 C 15,0 C 62 % 0 lf 1002,8 hPa 0,0 l/m 2 min 0 min 109 W/m 41,8 km/h (6 Bft) 97,87 %
06.06.2017 20:10 16,3 C 16,1 C 15,0 C 62 % 0 lf 1002,6 hPa 0,0 l/m 2 min 0 min 104 W/m 37,7 km/h (5 Bft) 95,74 %
06.06.2017 20:12 16,3 C 16,1 C 15,0 C 62 % 0 lf 1002,7 hPa 0,0 l/m 2 min 0 min 102 W/m 23,0 km/h (4 Bft) 95,74 %
06.06.2017 20:14 16,3 C 16,1 C 15,0 C 62 % 0 lf 1002,7 hPa 0,0 l/m 2 min 0 min 97 W/m 31,4 km/h (5 Bft) 95,74 %
06.06.2017 20:16 16,3 C 16,1 C 15,0 C 63 % 0 lf 1002,6 hPa 0,0 l/m 0 min 0 min 91 W/m 20,9 km/h (4 Bft) 97,87 %
06.06.2017 20:18 16,2 C 16,1 C 14,4 C 62 % 0 lf 1002,9 hPa 0,0 l/m 0 min 0 min 89 W/m 31,4 km/h (5 Bft) 95,74 %
06.06.2017 20:20 16,2 C 16,1 C 14,4 C 62 % 0 lf 1002,7 hPa 0,0 l/m 0 min 0 min 63 W/m 46,0 km/h (6 Bft) 95,74 %
06.06.2017 20:22 16,2 C 16,1 C 14,4 C 62 % 0 lf 1002,7 hPa 0,0 l/m 0 min 0 min 76 W/m 33,5 km/h (5 Bft) 97,87 %
06.06.2017 20:24 16,2 C 16,1 C 14,4 C 63 % 0 lf 1002,8 hPa 0,0 l/m 0 min 0 min 79 W/m 31,4 km/h (5 Bft) 95,74 %
06.06.2017 20:26 16,1 C 16,1 C 14,4 C 63 % 0 lf 1002,8 hPa 0,0 l/m 0 min 0 min 76 W/m 37,7 km/h (5 Bft) 95,74 %
06.06.2017 20:28 16,1 C 16,1 C 14,4 C 62 % 0 lf 1002,8 hPa 0,0 l/m 0 min 0 min 75 W/m 50,2 km/h (7 Bft) 95,65 %
06.06.2017 20:30 16,1 C 16,1 C 14,4 C 62 % 0 lf 1002,8 hPa 0,0 l/m 0 min 0 min 70 W/m 41,8 km/h (6 Bft) 93,62 %
06.06.2017 20:32 16,1 C 16,1 C 14,4 C 62 % 0 lf 1002,9 hPa 0,0 l/m 0 min 0 min 62 W/m 37,7 km/h (5 Bft) 97,87 %
06.06.2017 20:34 16,0 C 16,1 C 14,4 C 62 % 0 lf 1003,0 hPa 0,0 l/m 0 min 0 min 55 W/m 39,7 km/h (6 Bft) 93,62 %
06.06.2017 20:36 16,0 C 16,1 C 14,4 C 62 % 0 lf 1002,9 hPa 0,0 l/m 0 min 0 min 61 W/m 31,4 km/h (5 Bft) 95,74 %
06.06.2017 20:38 15,9 C 16,1 C 14,4 C 63 % 0 lf 1002,9 hPa 0,0 l/m 0 min 0 min 55 W/m 35,6 km/h (5 Bft) 93,62 %
06.06.2017 20:40 15,9 C 16,1 C 14,4 C 62 % 0 lf 1002,9 hPa 0,0 l/m 0 min 0 min 53 W/m 41,8 km/h (6 Bft) 97,83 %
06.06.2017 20:42 15,9 C 15,6 C 13,9 C 63 % 0 lf 1002,9 hPa 0,0 l/m 0 min 0 min 49 W/m 27,2 km/h (4 Bft) 97,87 %
06.06.2017 20:44 15,9 C 15,6 C 13,9 C 63 % 0 lf 1003,0 hPa 0,0 l/m 0 min 0 min 41 W/m 37,7 km/h (5 Bft) 97,87 %
06.06.2017 20:46 15,8 C 15,6 C 13,9 C 63 % 0 lf 1003,0 hPa 0,0 l/m 0 min 0 min 33 W/m 27,2 km/h (4 Bft) 91,67 %
06.06.2017 20:48 15,8 C 15,6 C 13,9 C 63 % 0 lf 1002,9 hPa 0,0 l/m 0 min 0 min 34 W/m 29,3 km/h (5 Bft) 93,62 %
06.06.2017 20:50 15,7 C 15,6 C 13,9 C 63 % 0 lf 1003,0 hPa 0,0 l/m 0 min 0 min 33 W/m 33,5 km/h (5 Bft) 93,62 %
06.06.2017 20:52 15,7 C 15,6 C 13,9 C 63 % 0 lf 1003,1 hPa 0,0 l/m 0 min 0 min 30 W/m 41,8 km/h (6 Bft) 84,78 %
06.06.2017 20:54 15,7 C 15,6 C 13,9 C 63 % 0 lf 1003,0 hPa 0,0 l/m 0 min 0 min 25 W/m 35,6 km/h (5 Bft) 97,22 %
06.06.2017 20:56 15,6 C 15,6 C 13,9 C 63 % 0 lf 1003,0 hPa 0,0 l/m 0 min 0 min 25 W/m 41,8 km/h (6 Bft) 89,36 %
06.06.2017 20:58 15,6 C 15,0 C 13,9 C 64 % 0 lf 1003,0 hPa 0,0 l/m 0 min 0 min 25 W/m 29,3 km/h (5 Bft) 97,87 %
06.06.2017 21:00 15,5 C 15,0 C 13,3 C 64 % 0 lf 1003,0 hPa 0,0 l/m 0 min 0 min 25 W/m 20,9 km/h (4 Bft) 100,00 %
06.06.2017 21:02 15,4 C 15,0 C 13,3 C 64 % 0 lf 1003,1 hPa 0,0 l/m 0 min 0 min 25 W/m 29,3 km/h (5 Bft) 87,50 %
06.06.2017 21:04 15,4 C 15,0 C 13,3 C 64 % 0 lf 1003,1 hPa 0,0 l/m 0 min 0 min 25 W/m 37,7 km/h (5 Bft) 95,24 %
06.06.2017 21:06 15,3 C 15,0 C 13,3 C 64 % 0 lf 1003,1 hPa 0,0 l/m 0 min 0 min 23 W/m 33,5 km/h (5 Bft) 100,00 %
06.06.2017 21:08 15,3 C 15,0 C 13,3 C 64 % 0 lf 1003,3 hPa 0,0 l/m 0 min 0 min 21 W/m 33,5 km/h (5 Bft) 97,87 %
06.06.2017 21:10 15,2 C 15,0 C 13,3 C 64 % 0 lf 1003,2 hPa 0,0 l/m 0 min 0 min 19 W/m 29,3 km/h (5 Bft) 98,11 %
06.06.2017 21:12 15,2 C 15,0 C 13,3 C 64 % 0 lf 1003,2 hPa 0,0 l/m 0 min 0 min 19 W/m 23,0 km/h (4 Bft) 100,00 %
06.06.2017 21:14 15,2 C 15,0 C 13,3 C 65 % 0 lf 1003,2 hPa 0,0 l/m 0 min 0 min 18 W/m 23,0 km/h (4 Bft) 100,00 %
06.06.2017 21:16 15,1 C 15,0 C 13,3 C 65 % 0 lf 1003,3 hPa 0,0 l/m 0 min 0 min 18 W/m 27,2 km/h (4 Bft) 100,00 %
06.06.2017 21:18 15,1 C 14,4 C 13,3 C 65 % 0 lf 1003,3 hPa 0,0 l/m 0 min 0 min 16 W/m 43,9 km/h (6 Bft) 97,83 %
06.06.2017 21:20 15,0 C 14,4 C 13,3 C 65 % 0 lf 1003,4 hPa 0,0 l/m 0 min 0 min 16 W/m 27,2 km/h (4 Bft) 97,92 %
06.06.2017 21:22 14,9 C 14,4 C 13,3 C 65 % 0 lf 1003,4 hPa 0,0 l/m 0 min 0 min 15 W/m 27,2 km/h (4 Bft) 97,87 %
06.06.2017 21:24 14,9 C 14,4 C 13,3 C 65 % 0 lf 1003,3 hPa 0,0 l/m 0 min 0 min 14 W/m 35,6 km/h (5 Bft) 97,87 %
06.06.2017 21:26 14,9 C 14,4 C 12,8 C 65 % 0 lf 1003,4 hPa 0,0 l/m 0 min 0 min 13 W/m 20,9 km/h (4 Bft) 97,87 %
06.06.2017 21:28 14,9 C 14,4 C 12,8 C 65 % 0 lf 1003,4 hPa 0,0 l/m 0 min 0 min 12 W/m 27,2 km/h (4 Bft) 95,74 %
06.06.2017 21:30 14,8 C 14,4 C 12,8 C 66 % 0 lf 1003,5 hPa 0,0 l/m 0 min 0 min 12 W/m 25,1 km/h (4 Bft) 95,65 %
06.06.2017 21:32 14,8 C 14,4 C 12,8 C 66 % 0 lf 1003,4 hPa 0,0 l/m 0 min 0 min 11 W/m 29,3 km/h (5 Bft) 97,87 %
06.06.2017 21:34 14,8 C 14,4 C 12,8 C 66 % 0 lf 1003,4 hPa 0,0 l/m 0 min 0 min 11 W/m 25,1 km/h (4 Bft) 97,87 %
06.06.2017 21:36 14,7 C 14,4 C 12,8 C 66 % 0 lf 1003,5 hPa 0,0 l/m 0 min 0 min 10 W/m 29,3 km/h (5 Bft) 93,62 %
06.06.2017 21:38 14,7 C 14,4 C 12,8 C 66 % 0 lf 1003,5 hPa 0,0 l/m 0 min 0 min 9 W/m 25,1 km/h (4 Bft) 97,87 %
06.06.2017 21:40 14,7 C 14,4 C 12,8 C 66 % 0 lf 1003,5 hPa 0,0 l/m 0 min 0 min 9 W/m 31,4 km/h (5 Bft) 91,49 %
06.06.2017 21:42 14,6 C 14,4 C 12,8 C 67 % 0 lf 1003,6 hPa 0,0 l/m 0 min 0 min 8 W/m 33,5 km/h (5 Bft) 95,65 %
06.06.2017 21:44 14,6 C 14,4 C 12,8 C 67 % 0 lf 1003,5 hPa 0,0 l/m 0 min 0 min 7 W/m 27,2 km/h (4 Bft) 95,74 %
06.06.2017 21:46 14,6 C 14,4 C 12,8 C 67 % 0 lf 1003,5 hPa 0,0 l/m 0 min 0 min 7 W/m 25,1 km/h (4 Bft) 93,62 %
06.06.2017 21:48 14,5 C 14,4 C 12,8 C 67 % 0 lf 1003,6 hPa 0,0 l/m 0 min 0 min 7 W/m 35,6 km/h (5 Bft) 95,74 %
06.06.2017 21:50 14,5 C 14,4 C 12,8 C 67 % 0 lf 1003,5 hPa 0,0 l/m 0 min 0 min 6 W/m 35,6 km/h (5 Bft) 91,49 %
06.06.2017 21:53 14,4 C 13,9 C 12,2 C 67 % 0 lf 1003,7 hPa 0,0 l/m 0 min 0 min 5 W/m 27,2 km/h (4 Bft) 94,29 %
06.06.2017 21:54 14,4 C 13,9 C 12,2 C 67 % 0 lf 1003,7 hPa 0,0 l/m 0 min 0 min 5 W/m 14,6 km/h (3 Bft) 100,00 %
06.06.2017 21:56 14,4 C 13,9 C 12,2 C 67 % 0 lf 1003,7 hPa 0,0 l/m 0 min 0 min 5 W/m 16,7 km/h (3 Bft) 93,65 %
06.06.2017 21:58 14,3 C 13,9 C 12,2 C 67 % 0 lf 1003,7 hPa 0,0 l/m 0 min 0 min 5 W/m 23,0 km/h (4 Bft) 95,74 %
06.06.2017 22:00 14,3 C 13,9 C 12,2 C 67 % 0 lf 1003,7 hPa 0,0 l/m 0 min 0 min 5 W/m 27,2 km/h (4 Bft) 95,65 %
06.06.2017 22:02 14,3 C 13,9 C 12,2 C 67 % 0 lf 1003,8 hPa 0,0 l/m 0 min 0 min 5 W/m 18,8 km/h (3 Bft) 97,87 %
06.06.2017 22:04 14,3 C 13,9 C 12,2 C 67 % 0 lf 1003,9 hPa 0,0 l/m 0 min 0 min 0 W/m 39,7 km/h (6 Bft) 91,49 %
06.06.2017 22:06 14,3 C 13,9 C 12,2 C 68 % 0 lf 1003,9 hPa 0,0 l/m 0 min 0 min 0 W/m 29,3 km/h (5 Bft) 93,62 %
06.06.2017 22:08 14,2 C 13,9 C 12,2 C 68 % 0 lf 1003,9 hPa 0,0 l/m 0 min 0 min 0 W/m 25,1 km/h (4 Bft) 93,62 %
06.06.2017 22:10 14,2 C 13,9 C 12,2 C 68 % 0 lf 1003,9 hPa 0,0 l/m 0 min 0 min 0 W/m 20,9 km/h (4 Bft) 97,87 %
06.06.2017 22:12 14,2 C 13,9 C 12,2 C 68 % 0 lf 1003,9 hPa 0,0 l/m 0 min 0 min 0 W/m 16,7 km/h (3 Bft) 93,48 %
06.06.2017 22:14 14,2 C 13,9 C 12,2 C 68 % 0 lf 1003,9 hPa 0,0 l/m 0 min 0 min 0 W/m 23,0 km/h (4 Bft) 93,62 %
06.06.2017 22:16 14,2 C 13,9 C 12,2 C 68 % 0 lf 1004,0 hPa 0,0 l/m 0 min 0 min 0 W/m 27,2 km/h (4 Bft) 93,62 %
06.06.2017 22:18 14,2 C 13,9 C 12,2 C 68 % 0 lf 1003,9 hPa 0,0 l/m 0 min 0 min 0 W/m 25,1 km/h (4 Bft) 95,74 %
06.06.2017 22:20 14,2 C 13,9 C 12,2 C 68 % 0 lf 1004,0 hPa 0,0 l/m 0 min 0 min 0 W/m 20,9 km/h (4 Bft) 93,62 %
06.06.2017 22:22 14,2 C 13,9 C 12,2 C 68 % 0 lf 1004,0 hPa 0,0 l/m 0 min 0 min 0 W/m 20,9 km/h (4 Bft) 93,62 %
06.06.2017 22:24 14,2 C 13,9 C 12,2 C 69 % 0 lf 1004,0 hPa 0,0 l/m 0 min 0 min 0 W/m 18,8 km/h (3 Bft) 95,24 %
06.06.2017 22:26 14,2 C 13,9 C 12,2 C 69 % 0 lf 1004,0 hPa 0,0 l/m 0 min 0 min 0 W/m 18,8 km/h (3 Bft) 95,74 %
06.06.2017 22:28 14,2 C 13,9 C 12,2 C 69 % 0 lf 1004,1 hPa 0,0 l/m 0 min 0 min 0 W/m 20,9 km/h (4 Bft) 97,83 %
06.06.2017 22:30 14,2 C 13,9 C 11,7 C 69 % 0 lf 1004,0 hPa 0,0 l/m 0 min 0 min 0 W/m 14,6 km/h (3 Bft) 93,62 %
06.06.2017 22:32 14,1 C 13,9 C 11,7 C 70 % 0 lf 1004,2 hPa 0,0 l/m 0 min 0 min 0 W/m 27,2 km/h (4 Bft) 95,74 %
06.06.2017 22:34 14,1 C 13,3 C 11,7 C 70 % 0 lf 1004,2 hPa 0,0 l/m 0 min 0 min 0 W/m 18,8 km/h (3 Bft) 97,87 %
06.06.2017 22:36 14,0 C 13,3 C 11,7 C 70 % 0 lf 1004,3 hPa 0,0 l/m 0 min 0 min 0 W/m 18,8 km/h (3 Bft) 96,00 %
06.06.2017 22:38 13,9 C 13,3 C 11,7 C 70 % 0 lf 1004,2 hPa 0,0 l/m 0 min 0 min 0 W/m 25,1 km/h (4 Bft) 93,48 %
06.06.2017 22:40 13,9 C 13,3 C 11,7 C 70 % 0 lf 1004,3 hPa 0,0 l/m 0 min 0 min 0 W/m 12,6 km/h (3 Bft) 93,62 %
06.06.2017 22:42 13,9 C 13,3 C 11,7 C 71 % 0 lf 1004,3 hPa 0,0 l/m 0 min 0 min 0 W/m 27,2 km/h (4 Bft) 97,92 %
06.06.2017 22:44 13,8 C 13,3 C 11,7 C 71 % 0 lf 1004,3 hPa 0,0 l/m 0 min 0 min 0 W/m 25,1 km/h (4 Bft) 95,74 %
06.06.2017 22:46 13,8 C 13,3 C 11,7 C 71 % 0 lf 1004,3 hPa 0,0 l/m 0 min 0 min 0 W/m 23,0 km/h (4 Bft) 97,87 %
06.06.2017 22:48 13,7 C 13,3 C 11,7 C 71 % 0 lf 1004,3 hPa 0,0 l/m 0 min 0 min 0 W/m 16,7 km/h (3 Bft) 97,87 %
06.06.2017 22:50 13,7 C 13,3 C 11,7 C 71 % 0 lf 1004,4 hPa 0,0 l/m 0 min 0 min 0 W/m 25,1 km/h (4 Bft) 95,65 %
06.06.2017 22:52 13,7 C 13,3 C 11,7 C 71 % 0 lf 1004,4 hPa 0,0 l/m 0 min 0 min 1 W/m 33,5 km/h (5 Bft) 97,87 %
06.06.2017 22:54 13,6 C 13,3 C 11,7 C 71 % 0 lf 1004,3 hPa 0,0 l/m 0 min 0 min 5 W/m 23,0 km/h (4 Bft) 95,74 %
06.06.2017 22:56 13,6 C 13,3 C 11,7 C 71 % 0 lf 1004,3 hPa 0,0 l/m 0 min 0 min 5 W/m 23,0 km/h (4 Bft) 95,74 %
06.06.2017 22:58 13,6 C 13,3 C 11,7 C 71 % 0 lf 1004,3 hPa 0,0 l/m 0 min 0 min 5 W/m 23,0 km/h (4 Bft) 95,74 %
06.06.2017 23:00 13,5 C 12,8 C 11,7 C 71 % 0 lf 1004,3 hPa 0,0 l/m 0 min 0 min 5 W/m 25,1 km/h (4 Bft) 93,62 %
06.06.2017 23:02 13,5 C 12,8 C 11,7 C 71 % 0 lf 1004,3 hPa 0,0 l/m 0 min 0 min 5 W/m 23,0 km/h (4 Bft) 91,49 %
06.06.2017 23:04 13,4 C 13,3 C 11,7 C 72 % 0 lf 1004,3 hPa 0,0 l/m 0 min 0 min 5 W/m 25,1 km/h (4 Bft) 91,49 %
06.06.2017 23:06 13,4 C 13,3 C 11,7 C 72 % 0 lf 1004,4 hPa 0,0 l/m 0 min 0 min 5 W/m 27,2 km/h (4 Bft) 94,00 %
06.06.2017 23:08 13,4 C 13,3 C 11,7 C 72 % 0 lf 1004,4 hPa 0,0 l/m 0 min 0 min 5 W/m 14,6 km/h (3 Bft) 95,74 %
06.06.2017 23:10 13,4 C 13,3 C 11,7 C 72 % 0 lf 1004,3 hPa 0,0 l/m 0 min 0 min 5 W/m 35,6 km/h (5 Bft) 95,74 %
06.06.2017 23:12 13,4 C 13,3 C 11,7 C 71 % 0 lf 1004,5 hPa 0,0 l/m 0 min 0 min 5 W/m 31,4 km/h (5 Bft) 95,65 %
06.06.2017 23:14 13,4 C 13,3 C 11,7 C 72 % 0 lf 1004,4 hPa 0,0 l/m 0 min 0 min 5 W/m 33,5 km/h (5 Bft) 93,62 %
06.06.2017 23:16 13,4 C 13,3 C 11,7 C 72 % 0 lf 1004,5 hPa 0,0 l/m 0 min 0 min 5 W/m 29,3 km/h (5 Bft) 95,74 %
06.06.2017 23:18 13,4 C 13,3 C 11,7 C 72 % 0 lf 1004,5 hPa 0,0 l/m 0 min 0 min 5 W/m 23,0 km/h (4 Bft) 95,74 %
06.06.2017 23:20 13,4 C 13,3 C 11,7 C 72 % 0 lf 1004,5 hPa 0,0 l/m 0 min 0 min 5 W/m 29,3 km/h (5 Bft) 97,87 %
06.06.2017 23:22 13,3 C 13,3 C 11,7 C 72 % 0 lf 1004,6 hPa 0,0 l/m 0 min 0 min 5 W/m 23,0 km/h (4 Bft) 97,22 %
06.06.2017 23:24 13,3 C 13,3 C 11,7 C 72 % 0 lf 1004,6 hPa 0,0 l/m 0 min 0 min 5 W/m 48,1 km/h (6 Bft) 93,10 %
06.06.2017 23:26 13,3 C 13,3 C 11,7 C 72 % 0 lf 1004,6 hPa 0,0 l/m 0 min 0 min 5 W/m 35,6 km/h (5 Bft) 94,44 %
06.06.2017 23:28 13,3 C 13,3 C 11,7 C 72 % 0 lf 1004,6 hPa 0,0 l/m 0 min 0 min 5 W/m 25,1 km/h (4 Bft) 96,55 %
06.06.2017 23:30 13,3 C 13,3 C 11,7 C 72 % 0 lf 1004,6 hPa 0,0 l/m 0 min 0 min 5 W/m 33,5 km/h (5 Bft) 91,43 %
06.06.2017 23:32 13,3 C 13,3 C 11,7 C 72 % 0 lf 1004,6 hPa 0,0 l/m 0 min 0 min 5 W/m 27,2 km/h (4 Bft) 91,53 %
06.06.2017 23:34 13,3 C 12,8 C 11,7 C 72 % 0 lf 1004,5 hPa 0,0 l/m 0 min 0 min 5 W/m 27,2 km/h (4 Bft) 94,29 %
06.06.2017 23:36 13,3 C 12,8 C 11,7 C 72 % 0 lf 1004,6 hPa 0,0 l/m 0 min 0 min 5 W/m 41,8 km/h (6 Bft) 93,75 %
06.06.2017 23:38 13,3 C 13,3 C 11,7 C 72 % 0 lf 1004,6 hPa 0,0 l/m 0 min 0 min 5 W/m 39,7 km/h (6 Bft) 95,74 %
06.06.2017 23:40 13,3 C 13,3 C 11,7 C 72 % 0 lf 1004,6 hPa 0,0 l/m 0 min 0 min 5 W/m 35,6 km/h (5 Bft) 95,74 %
06.06.2017 23:42 13,2 C 12,8 C 11,7 C 72 % 0 lf 1004,6 hPa 0,0 l/m 0 min 0 min 5 W/m 27,2 km/h (4 Bft) 93,62 %
06.06.2017 23:44 13,2 C 12,8 C 11,7 C 72 % 0 lf 1004,6 hPa 0,0 l/m 0 min 0 min 5 W/m 31,4 km/h (5 Bft) 95,74 %
06.06.2017 23:46 13,2 C 12,8 C 11,7 C 73 % 0 lf 1004,6 hPa 0,0 l/m 0 min 0 min 5 W/m 27,2 km/h (4 Bft) 91,49 %
06.06.2017 23:48 13,2 C 12,8 C 11,7 C 72 % 0 lf 1004,6 hPa 0,0 l/m 0 min 0 min 5 W/m 31,4 km/h (5 Bft) 97,83 %
06.06.2017 23:50 13,2 C 12,8 C 11,7 C 73 % 0 lf 1004,6 hPa 0,0 l/m 0 min 0 min 5 W/m 20,9 km/h (4 Bft) 95,74 %
06.06.2017 23:52 13,2 C 12,8 C 11,1 C 73 % 0 lf 1004,6 hPa 0,0 l/m 0 min 0 min 5 W/m 16,7 km/h (3 Bft) 97,87 %
06.06.2017 23:54 13,1 C 12,8 C 11,1 C 73 % 0 lf 1004,7 hPa 0,0 l/m 0 min 0 min 5 W/m 31,4 km/h (5 Bft) 93,62 %
06.06.2017 23:56 13,1 C 12,8 C 11,7 C 73 % 0 lf 1004,7 hPa 0,0 l/m 0 min 0 min 5 W/m 31,4 km/h (5 Bft) 95,74 %
06.06.2017 23:58 13,1 C 12,8 C 11,7 C 73 % 0 lf 1004,7 hPa 0,0 l/m 0 min 0 min 5 W/m 41,8 km/h (6 Bft) 93,62 %
_ Min-Zeit 23:54 23:00 23:52 16:44 00:00 10:10 - - - - 08:42 09:16
Minimum _ 13,1 C 12,8 C 11,1 C 55 % 0 lf 997,1 hPa - - - - 2,1 km/h (1 Bft) 4,76 %
_ Max-Zeit 15:28 13:28 15:20 09:28 07:56 00:00 11:32 12:12 08:33 13:36 15:56 00:10
Maximum _ 18,6 C 24,4 C 27,2 C 90 % 15 lf 1005,5 hPa 0,4 l/m 2 min 3 min 1056 W/m 66,9 km/h
W-NW (8 Bft)
100,00 %
Durchschnitt _ 15,9 C 16,2 C 15,1 C 72 % 2 lf 1001,0 hPa #3,0 l/m #4:38 h #4:08 h 223 W/m 25,6 km/h (4 Bft) 91,50 %
© 2017 W. Hausmann